EW4266 Weather Reports


time (UTC)temp
C
wind
direction
speed
KPH
gust
KPH
rain 1hr
cm
rain 24hr
cm
rain mn
cm
humidity
%
barometer
mb
20260904210054 23 360 4.8 14.5 0.00 0.00 0.00 66 1010.6
20260904210020 23 44 4.8 14.5 0.00 0.00 0.00 69 1010.7
20260904205849 23 338 6.4 14.5 0.00 0.00 0.00 67 1010.7
20260904205729 23 329 6.4 14.5 0.00 0.00 0.00 66 1010.7
20260904205633 23 5 4.8 14.5 0.00 0.00 0.00 67 1010.7
20260904205556 23 10 3.2 8.0 0.00 0.00 0.00 68 1010.7
20260904205427 23 332 4.8 9.7 0.00 0.00 0.00 68 1010.8
20260904205322 23 329 4.8 9.7 0.00 0.00 0.00 67 1010.8
20260904205042 23 314 3.2 14.5 0.00 0.00 0.00 66 1010.8
20260904205007 23 9 3.2 14.5 0.00 0.00 0.00 68 1010.8
20260904204818 23 308 3.2 14.5 0.00 0.00 0.00 66 1010.7
20260904204738 23 333 4.8 14.5 0.00 0.00 0.00 65 1010.7
20260904204608 23 355 6.4 14.5 0.00 0.00 0.00 67 1010.7
20260904204526 23 331 6.4 14.5 0.00 0.00 0.00 66 1010.7
20260904204403 23 360 8.0 14.5 0.00 0.00 0.00 66 1010.8
20260904204324 23 346 8.0 14.5 0.00 0.00 0.00 66 1010.8
20260904204127 23 333 4.8 14.5 0.00 0.00 0.00 65 1010.7
20260904204050 23 315 4.8 14.5 0.00 0.00 0.00 65 1010.7
20260904203954 23 319 8.0 16.1 0.00 0.00 0.00 64 1010.7
20260904203915 23 329 8.0 16.1 0.00 0.00 0.00 64 1010.7
20260904203746 23 329 4.8 16.1 0.00 0.00 0.00 65 1010.8
20260904203640 23 293 8.0 16.1 0.00 0.00 0.00 64 1010.7
20260904203526 23 343 9.7 16.1 0.00 0.00 0.00 64 1010.7
20260904203432 23 337 8.0 16.1 0.00 0.00 0.00 64 1010.8
20260904203354 23 336 6.4 16.1 0.00 0.00 0.00 64 1010.8
20260904203259 23 342 8.0 16.1 0.00 0.00 0.00 63 1010.7
20260904203139 24 310 8.0 16.1 0.00 0.00 0.00 63 1010.8
20260904203042 24 355 4.8 16.1 0.00 0.00 0.00 64 1010.8
20260904202942 24 313 6.4 16.1 0.00 0.00 0.00 63 1010.8
20260904202725 24 327 8.0 16.1 0.00 0.00 0.00 64 1010.7
20260904202627 24 344 4.8 16.1 0.00 0.00 0.00 63 1010.7
20260904202532 24 331 4.8 16.1 0.00 0.00 0.00 65 1010.7
20260904202435 24 321 4.8 16.1 0.00 0.00 0.00 65 1010.7
20260904202307 24 340 8.0 16.1 0.00 0.00 0.00 65 1010.6
20260904202222 24 348 8.0 16.1 0.00 0.00 0.00 63 1010.6
20260904202032 24 337 6.4 17.7 0.00 0.00 0.00 64 1010.6
20260904201932 24 42 6.4 17.7 0.00 0.00 0.00 64 1010.6
20260904201737 24 303 9.7 17.7 0.00 0.00 0.00 62 1010.6
20260904201639 24 319 9.7 17.7 0.00 0.00 0.00 63 1010.5
20260904201535 24 344 9.7 17.7 0.00 0.00 0.00 64 1010.5
20260904201458 25 5 9.7 17.7 0.00 0.00 0.00 63 1010.5
20260904201324 25 338 11.3 17.7 0.00 0.00 0.00 63 1010.5
20260904201240 25 328 12.9 17.7 0.00 0.00 0.00 62 1010.6
20260904201110 25 349 9.7 19.3 0.00 0.00 0.00 64 1010.5
20260904201032 25 323 8.0 19.3 0.00 0.00 0.00 65 1010.5
20260904200837 25 343 8.0 19.3 0.00 0.00 0.00 63 1010.6
20260904200759 25 323 8.0 19.3 0.00 0.00 0.00 64 1010.5
20260904200623 24 340 11.3 19.3 0.00 0.00 0.00 64 1010.6
20260904200539 24 338 12.9 19.3 0.00 0.00 0.00 64 1010.6
20260904200349 24 328 8.0 19.3 0.00 0.00 0.00 66 1010.7
20260904200314 24 351 6.4 19.3 0.00 0.00 0.00 67 1010.6
20260904200146 24 339 6.4 19.3 0.00 0.00 0.00 66 1010.7
20260904200039 24 327 4.8 19.3 0.00 0.00 0.00 64 1010.7
20260904195909 24 333 3.2 19.3 0.00 0.00 0.00 67 1010.7
20260904195832 24 315 4.8 19.3 0.00 0.00 0.00 67 1010.7
20260904195635 24 327 9.7 19.3 0.00 0.00 0.00 65 1010.7
20260904195558 24 300 8.0 19.3 0.00 0.00 0.00 63 1010.7
20260904195443 24 311 9.7 19.3 0.00 0.00 0.00 62 1010.7
20260904195404 24 304 9.7 19.3 0.00 0.00 0.00 63 1010.7
20260904195306 24 317 8.0 16.1 0.00 0.00 0.00 63 1010.7
20260904195208 24 321 8.0 16.1 0.00 0.00 0.00 67 1010.8
20260904195133 24 347 8.0 16.1 0.00 0.00 0.00 67 1010.8
20260904195005 24 324 6.4 14.5 0.00 0.00 0.00 67 1010.8
20260904194921 24 12 6.4 19.3 0.00 0.00 0.00 65 1010.8
20260904194659 24 355 9.7 19.3 0.00 0.00 0.00 66 1010.8
20260904194622 24 333 8.0 19.3 0.00 0.00 0.00 66 1010.8
20260904194538 24 327 6.4 19.3 0.00 0.00 0.00 66 1010.8
20260904194409 24 324 4.8 19.3 0.00 0.00 0.00 64 1010.8
20260904194331 24 322 4.8 19.3 0.00 0.00 0.00 65 1010.8
20260904194201 24 267 11.3 19.3 0.00 0.00 0.00 64 1010.8
20260904194116 24 333 12.9 19.3 0.00 0.00 0.00 64 1010.8
20260904193927 24 342 11.3 17.7 0.00 0.00 0.00 66 1010.8
20260904193844 24 333 8.0 14.5 0.00 0.00 0.00 68 1010.9
20260904193657 23 344 4.8 9.7 0.00 0.00 0.00 68 1010.8
20260904193619 23 326 4.8 9.7 0.00 0.00 0.00 67 1010.8
20260904193423 23 360 4.8 9.7 0.00 0.00 0.00 68 1010.7
20260904193346 23 11 4.8 9.7 0.00 0.00 0.00 69 1010.7
20260904193231 23 350 6.4 8.0 0.00 0.00 0.00 68 1010.7
20260904193132 23 334 6.4 14.5 0.00 0.00 0.00 67 1010.8
20260904192935 23 355 3.2 14.5 0.00 0.00 0.00 68 1010.8
20260904192859 23 355 3.2 14.5 0.00 0.00 0.00 68 1010.7
20260904192742 23 355 6.4 14.5 0.00 0.00 0.00 67 1010.8
20260904192645 23 355 6.4 14.5 0.00 0.00 0.00 68 1010.8
20260904192516 23 339 6.4 14.5 0.00 0.00 0.00 68 1010.8
20260904192432 23 325 8.0 14.5 0.00 0.00 0.00 67 1010.8
20260904192242 23 320 8.0 12.9 0.00 0.00 0.00 66 1010.8
20260904192157 23 13 6.4 12.9 0.00 0.00 0.00 66 1010.8
20260904192027 23 332 3.2 8.0 0.00 0.00 0.00 67 1010.8
20260904191928 23 334 3.2 8.0 0.00 0.00 0.00 66 1010.8
20260904191733 23 327 4.8 8.0 0.00 0.00 0.00 64 1010.8
20260904191634 23 311 4.8 8.0 0.00 0.00 0.00 65 1010.8
20260904191530 23 342 6.4 8.0 0.00 0.00 0.00 66 1010.8
20260904191457 23 320 4.8 8.0 0.00 0.00 0.00 67 1010.9
20260904191343 23 326 4.8 8.0 0.00 0.00 0.00 65 1010.9
20260904191315 23 348 3.2 8.0 0.00 0.00 0.00 67 1010.8
20260904191146 23 337 4.8 8.0 0.00 0.00 0.00 67 1010.9
20260904191102 23 329 4.8 8.0 0.00 0.00 0.00 65 1010.9
20260904190933 23 335 1.6 8.0 0.00 0.00 0.00 66 1010.9
20260904190832 23 309 1.6 8.0 0.00 0.00 0.00 65 1010.9
20260904190635 23 280 3.2 12.9 0.00 0.00 0.00 67 1010.8
20260904190558 23 328 1.6 12.9 0.00 0.00 0.00 67 1010.8
20260904190504 23 317 1.6 12.9 0.00 0.00 0.00 66 1010.8
20260904190345 23 317 3.2 12.9 0.00 0.00 0.00 65 1010.9
20260904190218 23 325 6.4 12.9 0.00 0.00 0.00 65 1010.9
20260904190120 23 321 6.4 12.9 0.00 0.00 0.00 64 1010.9
20260904190002 23 337 6.4 12.9 0.00 0.00 0.00 63 1010.8
20260904185843 23 331 6.4 16.1 0.00 0.00 0.00 63 1010.9
20260904185757 23 332 4.8 16.1 0.00 0.00 0.00 67 1010.8
20260904185720 23 333 4.8 16.1 0.00 0.00 0.00 66 1010.8
20260904185524 23 336 6.4 16.1 0.00 0.00 0.00 63 1010.8
20260904185427 23 327 6.4 16.1 0.00 0.00 0.00 63 1010.9
20260904185331 23 335 6.4 16.1 0.00 0.00 0.00 65 1010.9
20260904185238 23 345 6.4 16.1 0.00 0.00 0.00 64 1011.0
20260904185200 23 344 9.7 16.1 0.00 0.00 0.00 62 1011.0
20260904185105 23 331 9.7 16.1 0.00 0.00 0.00 65 1011.0
20260904185027 23 340 9.7 16.1 0.00 0.00 0.00 64 1011.0
20260904184830 23 13 6.4 12.9 0.00 0.00 0.00 66 1011.1
20260904184733 23 320 8.0 12.9 0.00 0.00 0.00 64 1011.1
20260904184637 23 337 6.4 12.9 0.00 0.00 0.00 63 1011.1
20260904184558 23 317 6.4 12.9 0.00 0.00 0.00 65 1011.1
20260904184522 23 330 4.8 9.7 0.00 0.00 0.00 63 1011.1
20260904184435 23 319 4.8 9.7 0.00 0.00 0.00 65 1011.1
20260904184305 23 307 4.8 9.7 0.00 0.00 0.00 67 1011.0
20260904184231 23 329 3.2 9.7 0.00 0.00 0.00 66 1011.0
20260904184034 23 296 1.6 9.7 0.00 0.00 0.00 66 1011.0
20260904183938 23 296 3.2 9.7 0.00 0.00 0.00 65 1011.0
20260904183841 23 311 4.8 9.7 0.00 0.00 0.00 64 1010.9
20260904183805 24 330 6.4 9.7 0.00 0.00 0.00 62 1011.0
20260904183706 24 327 4.8 9.7 0.00 0.00 0.00 62 1010.9
20260904183611 24 306 3.2 9.7 0.00 0.00 0.00 64 1010.9
20260904183532 24 306 4.8 9.7 0.00 0.00 0.00 64 1010.9
20260904183402 24 320 6.4 14.5 0.00 0.00 0.00 65 1011.0
20260904183236 24 340 3.2 14.5 0.00 0.00 0.00 67 1010.9
20260904183125 24 306 4.8 14.5 0.00 0.00 0.00 66 1010.9
20260904183046 24 330 6.4 14.5 0.00 0.00 0.00 65 1010.9
20260904182834 24 351 8.0 14.5 0.00 0.00 0.00 65 1011.0
20260904182728 24 337 6.4 14.5 0.00 0.00 0.00 64 1011.0
20260904182630 24 13 8.0 14.5 0.00 0.00 0.00 63 1010.9
20260904182554 24 348 8.0 14.5 0.00 0.00 0.00 63 1010.9
20260904182453 24 355 6.4 12.9 0.00 0.00 0.00 63 1010.9
20260904182325 24 325 6.4 14.5 0.00 0.00 0.00 63 1010.9
20260904182217 24 342 4.8 16.1 0.00 0.00 0.00 64 1010.9
20260904182033 24 360 4.8 16.1 0.00 0.00 0.00 63 1010.9
20260904181947 24 36 4.8 16.1 0.00 0.00 0.00 62 1010.9
20260904181735 24 13 4.8 16.1 0.00 0.00 0.00 61 1010.9
20260904181628 24 344 8.0 16.1 0.00 0.00 0.00 60 1011.0
20260904181549 24 302 8.0 16.1 0.00 0.00 0.00 60 1011.0
20260904181504 25 310 8.0 16.1 0.00 0.00 0.00 63 1011.0
20260904181425 25 331 8.0 16.1 0.00 0.00 0.00 65 1011.0
20260904181257 24 334 8.0 12.9 0.00 0.00 0.00 64 1011.0
20260904181212 24 343 8.0 12.9 0.00 0.00 0.00 64 1010.9
20260904181020 24 360 4.8 14.5 0.00 0.00 0.00 69 1010.8
20260904180941 24 348 3.2 14.5 0.00 0.00 0.00 68 1010.9
20260904180755 23 316 3.2 14.5 0.00 0.00 0.00 68 1010.9
20260904180649 23 331 4.8 14.5 0.00 0.00 0.00 64 1010.9
20260904180519 23 360 4.8 16.1 0.00 0.00 0.00 65 1010.9
20260904180421 23 5 4.8 16.1 0.00 0.00 0.00 65 1010.9
20260904180336 23 333 6.4 16.1 0.00 0.00 0.00 64 1010.9
20260904180207 24 293 9.7 19.3 0.00 0.00 0.00 63 1011.0
20260904180129 24 319 9.7 19.3 0.00 0.00 0.00 63 1011.0
20260904175933 24 355 9.7 19.3 0.00 0.00 0.00 63 1010.9
20260904175855 24 329 11.3 19.3 0.00 0.00 0.00 61 1010.9
20260904175738 24 309 9.7 19.3 0.00 0.00 0.00 62 1010.9
20260904175700 25 355 9.7 19.3 0.00 0.00 0.00 62 1010.9
20260904175627 25 321 11.3 19.3 0.00 0.00 0.00 62 1010.9
20260904175511 25 346 11.3 19.3 0.00 0.00 0.00 65 1011.0
20260904175433 25 355 11.3 19.3 0.00 0.00 0.00 65 1011.0
20260904175306 25 340 8.0 17.7 0.00 0.00 0.00 65 1011.0
20260904175219 25 348 8.0 17.7 0.00 0.00 0.00 62 1010.9
20260904175031 25 319 6.4 12.9 0.00 0.00 0.00 64 1010.9
20260904174946 25 360 8.0 12.9 0.00 0.00 0.00 66 1010.9
20260904174817 25 339 6.4 12.9 0.00 0.00 0.00 63 1011.0
20260904174738 25 319 4.8 12.9 0.00 0.00 0.00 63 1011.0
20260904174602 25 305 6.4 8.0 0.00 0.00 0.00 66 1011.1
20260904174524 25 355 6.4 8.0 0.00 0.00 0.00 67 1011.1
20260904174340 24 360 6.4 8.0 0.00 0.00 0.00 67 1011.1
20260904174253 24 340 4.8 8.0 0.00 0.00 0.00 68 1011.1
20260904174154 24 5 4.8 8.0 0.00 0.00 0.00 66 1011.2
20260904174116 24 348 4.8 8.0 0.00 0.00 0.00 67 1011.2
20260904173940 24 337 3.2 8.0 0.00 0.00 0.00 66 1011.3
20260904173841 24 340 1.6 8.0 0.00 0.00 0.00 65 1011.3
20260904173745 24 351 1.6 9.7 0.00 0.00 0.00 65 1011.3
20260904173706 24 351 3.2 9.7 0.00 0.00 0.00 65 1011.3
20260904173516 24 348 3.2 9.7 0.00 0.00 0.00 65 1011.3
20260904173432 24 334 4.8 9.7 0.00 0.00 0.00 63 1011.3
20260904173226 24 15 4.8 9.7 0.00 0.00 0.00 64 1011.3
20260904173140 24 5 4.8 9.7 0.00 0.00 0.00 63 1011.3
20260904173011 24 318 6.4 9.7 0.00 0.00 0.00 66 1011.3
20260904172932 24 318 6.4 9.7 0.00 0.00 0.00 65 1011.3
20260904172738 24 5 4.8 9.7 0.00 0.00 0.00 64 1011.2
20260904172700 24 17 3.2 9.7 0.00 0.00 0.00 64 1011.2
20260904172605 24 19 1.6 11.3 0.00 0.00 0.00 65 1011.1
20260904172526 24 320 1.6 8.0 0.00 0.00 0.00 65 1011.1
20260904172331 24 320 4.8 9.7 0.00 0.00 0.00 65 1011.1
20260904172234 24 324 4.8 9.7 0.00 0.00 0.00 65 1011.1
20260904172123 24 312 4.8 9.7 0.00 0.00 0.00 63 1011.1
20260904172045 24 311 4.8 12.9 0.00 0.00 0.00 63 1011.1
20260904172008 24 331 4.8 12.9 0.00 0.00 0.00 67 1011.1
20260904171912 24 325 3.2 12.9 0.00 0.00 0.00 67 1011.1
20260904171834 24 331 4.8 12.9 0.00 0.00 0.00 67 1011.1
20260904171704 23 319 6.4 12.9 0.00 0.00 0.00 67 1011.1
20260904171619 23 318 8.0 12.9 0.00 0.00 0.00 66 1011.1
20260904171430 23 330 6.4 12.9 0.00 0.00 0.00 67 1011.1
20260904171325 23 322 6.4 12.9 0.00 0.00 0.00 66 1011.1
20260904171249 23 327 6.4 12.9 0.00 0.00 0.00 64 1011.1
20260904171216 23 319 6.4 14.5 0.00 0.00 0.00 66 1011.1
20260904171130 23 331 6.4 14.5 0.00 0.00 0.00 66 1011.1
20260904170942 23 15 8.0 14.5 0.00 0.00 0.00 67 1011.1
20260904170856 23 336 6.4 14.5 0.00 0.00 0.00 66 1011.1
20260904170706 23 25 4.8 14.5 0.00 0.00 0.00 66 1011.1
20260904170628 23 30 6.4 14.5 0.00 0.00 0.00 66 1011.1
20260904170432 23 338 8.0 14.5 0.00 0.00 0.00 66 1011.2
20260904170355 23 335 8.0 14.5 0.00 0.00 0.00 67 1011.2
20260904170258 23 336 6.4 9.7 0.00 0.00 0.00 67 1011.2
20260904170222 23 355 3.2 12.9 0.00 0.00 0.00 67 1011.2
20260904170142 23 355 3.2 14.5 0.00 0.00 0.00 68 1011.2
20260904170017 23 355 6.4 14.5 0.00 0.00 0.00 67 1011.2
20260904165933 23 346 6.4 14.5 0.00 0.00 0.00 68 1011.2
20260904165743 23 355 4.8 16.1 0.00 0.00 0.00 67 1011.2
20260904165641 23 329 6.4 16.1 0.00 0.00 0.00 66 1011.2
20260904165526 23 343 8.0 16.1 0.00 0.00 0.00 68 1011.3
20260904165449 23 342 8.0 16.1 0.00 0.00 0.00 65 1011.3
20260904165422 23 355 8.0 16.1 0.00 0.00 0.00 67 1011.3
20260904165306 23 328 6.4 16.1 0.00 0.00 0.00 65 1011.2
20260904165227 23 15 6.4 16.1 0.00 0.00 0.00 66 1011.2
20260904165043 23 28 9.7 16.1 0.00 0.00 0.00 66 1011.3
20260904164937 23 360 8.0 16.1 0.00 0.00 0.00 65 1011.3
20260904164822 23 348 6.4 17.7 0.00 0.00 0.00 66 1011.3
20260904164743 23 342 8.0 17.7 0.00 0.00 0.00 66 1011.3
20260904164705 23 335 8.0 17.7 0.00 0.00 0.00 66 1011.3
20260904164611 23 327 8.0 17.7 0.00 0.00 0.00 66 1011.4
20260904164532 23 338 8.0 17.7 0.00 0.00 0.00 67 1011.4
20260904164404 23 309 9.7 17.7 0.00 0.00 0.00 66 1011.4
20260904164318 23 321 11.3 17.7 0.00 0.00 0.00 66 1011.4
20260904164130 23 5 11.3 17.7 0.00 0.00 0.00 65 1011.4
20260904164049 23 360 12.9 17.7 0.00 0.00 0.00 65 1011.4
20260904163840 23 338 8.0 16.1 0.00 0.00 0.00 67 1011.4
20260904163723 23 268 6.4 14.5 0.00 0.00 0.00 65 1011.4
20260904163645 23 355 6.4 14.5 0.00 0.00 0.00 65 1011.4
20260904163608 23 5 4.8 16.1 0.00 0.00 0.00 65 1011.4
20260904163512 23 340 4.8 16.1 0.00 0.00 0.00 64 1011.4
20260904163434 23 22 4.8 16.1 0.00 0.00 0.00 63 1011.4
20260904163305 24 355 6.4 16.1 0.00 0.00 0.00 64 1011.4
20260904163220 24 20 6.4 16.1 0.00 0.00 0.00 63 1011.4
20260904163050 24 311 8.0 16.1 0.00 0.00 0.00 63 1011.4
20260904162950 24 333 8.0 16.1 0.00 0.00 0.00 60 1011.4
20260904162837 25 302 9.7 16.1 0.00 0.00 0.00 62 1011.5
20260904162740 25 327 9.7 16.1 0.00 0.00 0.00 64 1011.4
20260904162701 25 355 6.4 14.5 0.00 0.00 0.00 64 1011.4
20260904162607 25 337 4.8 9.7 0.00 0.00 0.00 65 1011.4
20260904162527 25 355 4.8 9.7 0.00 0.00 0.00 63 1011.4
20260904162359 25 336 6.4 17.7 0.00 0.00 0.00 65 1011.3
20260904162314 25 334 6.4 17.7 0.00 0.00 0.00 63 1011.3
20260904162145 25 29 4.8 17.7 0.00 0.00 0.00 63 1011.2
20260904162107 25 75 3.2 17.7 0.00 0.00 0.00 64 1011.2
20260904161930 25 355 3.2 17.7 0.00 0.00 0.00 61 1011.3
20260904161852 25 11 4.8 17.7 0.00 0.00 0.00 61 1011.4
20260904161701 25 324 9.7 17.7 0.00 0.00 0.00 61 1011.4
20260904161627 25 342 8.0 17.7 0.00 0.00 0.00 65 1011.4
20260904161431 25 327 6.4 17.7 0.00 0.00 0.00 67 1011.4
20260904161354 25 340 6.4 17.7 0.00 0.00 0.00 68 1011.4
20260904161258 25 44 6.4 20.9 0.00 0.00 0.00 64 1011.4
20260904161139 25 60 6.4 20.9 0.00 0.00 0.00 63 1011.5
20260904161043 25 22 6.4 20.9 0.00 0.00 0.00 64 1011.5
20260904161006 25 24 8.0 20.9 0.00 0.00 0.00 64 1011.5
20260904160928 25 9 9.7 20.9 0.00 0.00 0.00 64 1011.5
20260904160758 25 13 9.7 20.9 0.00 0.00 0.00 64 1011.5
20260904160720 25 35 9.7 20.9 0.00 0.00 0.00 64 1011.6
20260904160536 25 11 11.3 20.9 0.00 0.00 0.00 65 1011.6
20260904160451 25 5 8.0 20.9 0.00 0.00 0.00 62 1011.7
20260904160320 24 11 6.4 14.5 0.00 0.00 0.00 63 1011.8
20260904160240 24 355 6.4 14.5 0.00 0.00 0.00 65 1011.8
20260904160042 24 339 8.0 14.5 0.00 0.00 0.00 68 1011.8
20260904160005 24 342 8.0 14.5 0.00 0.00 0.00 68 1011.8
20260904155909 24 342 6.4 14.5 0.00 0.00 0.00 68 1011.9
20260904155831 24 347 6.4 14.5 0.00 0.00 0.00 67 1011.9
20260904155616 23 344 6.4 12.9 0.00 0.00 0.00 68 1011.9
20260904155525 23 344 6.4 16.1 0.00 0.00 0.00 67 1011.9
20260904155428 23 332 8.0 16.1 0.00 0.00 0.00 66 1011.9
20260904155342 23 355 4.8 16.1 0.00 0.00 0.00 65 1011.9
20260904155133 23 31 6.4 16.1 0.00 0.00 0.00 68 1011.8
20260904155048 23 15 4.8 16.1 0.00 0.00 0.00 67 1011.8
20260904154920 23 329 6.4 17.7 0.00 0.00 0.00 67 1011.9
20260904154842 23 309 8.0 17.7 0.00 0.00 0.00 68 1011.9
20260904154623 23 341 8.0 17.7 0.00 0.00 0.00 67 1011.9
20260904154526 23 360 8.0 17.7 0.00 0.00 0.00 67 1011.9
20260904154435 23 338 8.0 17.7 0.00 0.00 0.00 66 1011.9
20260904154357 23 348 9.7 17.7 0.00 0.00 0.00 65 1011.9
20260904154259 23 348 9.7 17.7 0.00 0.00 0.00 66 1012.0
20260904154124 23 343 9.7 16.1 0.00 0.00 0.00 66 1012.0
20260904154040 24 355 8.0 16.1 0.00 0.00 0.00 66 1012.0
20260904153911 24 345 6.4 16.1 0.00 0.00 0.00 64 1012.0
20260904153834 24 337 6.4 16.1 0.00 0.00 0.00 64 1012.0
20260904153707 24 341 8.0 16.1 0.00 0.00 0.00 63 1012.0
20260904153622 24 280 8.0 16.1 0.00 0.00 0.00 63 1012.0
20260904153401 24 323 9.7 16.1 0.00 0.00 0.00 64 1012.0
20260904153322 24 345 9.7 16.1 0.00 0.00 0.00 64 1012.0
20260904153129 24 355 8.0 20.9 0.00 0.00 0.00 63 1012.1
20260904153053 24 345 8.0 20.9 0.00 0.00 0.00 63 1012.1
20260904152957 24 309 9.7 20.9 0.00 0.00 0.00 63 1012.0
20260904152919 24 346 8.0 20.9 0.00 0.00 0.00 63 1012.0
20260904152748 24 360 8.0 20.9 0.00 0.00 0.00 67 1012.1
20260904152623 24 342 9.7 20.9 0.00 0.00 0.00 65 1012.0
20260904152527 25 355 12.9 20.9 0.00 0.00 0.00 62 1012.1
20260904152428 25 327 12.9 22.5 0.00 0.00 0.00 63 1012.1
20260904152353 25 317 12.9 22.5 0.00 0.00 0.00 64 1012.1
20260904152306 25 350 9.7 22.5 0.00 0.00 0.00 63 1012.0
20260904152223 25 342 9.7 22.5 0.00 0.00 0.00 63 1012.0
20260904152055 25 331 9.7 22.5 0.00 0.00 0.00 64 1012.0
20260904151948 25 338 9.7 22.5 0.00 0.00 0.00 64 1011.9
20260904151817 25 336 8.0 22.5 0.00 0.00 0.00 63 1011.9
20260904151739 25 10 9.7 22.5 0.00 0.00 0.00 65 1011.9
20260904151612 25 360 12.9 22.5 0.00 0.00 0.00 67 1012.0
20260904151524 24 55 11.3 22.5 0.00 0.00 0.00 64 1012.0
20260904151335 24 340 12.9 22.5 0.00 0.00 0.00 65 1012.0
20260904151249 24 335 14.5 22.5 0.00 0.00 0.00 66 1012.0
20260904151059 24 355 9.7 20.9 0.00 0.00 0.00 64 1012.0
20260904150937 24 343 14.5 20.9 0.00 0.00 0.00 65 1012.0
20260904150847 24 338 14.5 20.9 0.00 0.00 0.00 65 1012.1
20260904150746 24 5 12.9 20.9 0.00 0.00 0.00 64 1012.0
20260904150617 24 347 9.7 19.3 0.00 0.00 0.00 67 1012.0
20260904150530 24 346 9.7 16.1 0.00 0.00 0.00 65 1012.0
20260904150401 24 355 11.3 16.1 0.00 0.00 0.00 66 1012.0
20260904150324 24 12 11.3 16.1 0.00 0.00 0.00 67 1012.0
20260904150127 24 349 11.3 14.5 0.00 0.00 0.00 67 1012.0
20260904150031 24 16 8.0 14.5 0.00 0.00 0.00 66 1012.0
20260904145934 24 355 4.8 12.9 0.00 0.00 0.00 65 1012.0
20260904145835 24 23 6.4 12.9 0.00 0.00 0.00 65 1012.0
20260904145706 24 314 6.4 12.9 0.00 0.00 0.00 65 1012.0
20260904145623 24 319 6.4 16.1 0.00 0.00 0.00 65 1012.0
20260904145435 24 324 4.8 16.1 0.00 0.00 0.00 69 1012.0
20260904145358 24 355 3.2 16.1 0.00 0.00 0.00 69 1012.0
20260904145218 23 300 4.8 16.1 0.00 0.00 0.00 69 1012.0
20260904145119 23 20 4.8 16.1 0.00 0.00 0.00 65 1012.1
20260904144943 23 360 8.0 16.1 0.00 0.00 0.00 69 1012.0
20260904144905 23 340 9.7 16.1 0.00 0.00 0.00 66 1012.1
20260904144715 23 5 8.0 14.5 0.00 0.00 0.00 69 1012.0
20260904144631 23 5 8.0 14.5 0.00 0.00 0.00 69 1012.0
20260904144501 23 346 4.8 17.7 0.00 0.00 0.00 72 1012.0
20260904144423 23 331 4.8 17.7 0.00 0.00 0.00 73 1012.0
20260904144252 23 26 8.0 17.7 0.00 0.00 0.00 71 1012.1
20260904144212 23 341 8.0 17.7 0.00 0.00 0.00 71 1012.1
20260904144055 23 9 6.4 17.7 0.00 0.00 0.00 69 1012.1
20260904144008 23 336 8.0 17.7 0.00 0.00 0.00 68 1012.1
20260904143819 23 5 9.7 17.7 0.00 0.00 0.00 68 1012.1
20260904143740 23 350 12.9 17.7 0.00 0.00 0.00 67 1012.1
20260904143612 23 333 9.7 17.7 0.00 0.00 0.00 69 1011.9
20260904143526 23 347 8.0 17.7 0.00 0.00 0.00 69 1011.9
20260904143355 23 298 11.3 17.7 0.00 0.00 0.00 71 1012.0
20260904143317 23 36 9.7 17.7 0.00 0.00 0.00 71 1012.0
20260904143141 22 32 6.4 9.7 0.00 0.00 0.00 71 1011.9
20260904143042 22 34 4.8 8.0 0.00 0.00 0.00 72 1011.9
20260904142931 22 13 3.2 8.0 0.00 0.00 0.00 74 1011.9
20260904142854 22 332 3.2 6.4 0.00 0.00 0.00 73 1011.8
20260904142759 22 332 3.2 8.0 0.00 0.00 0.00 75 1011.8
20260904142719 22 333 3.2 8.0 0.00 0.00 0.00 75 1011.8
20260904142525 22 46 3.2 9.7 0.00 0.00 0.00 72 1011.8
20260904142426 22 334 3.2 9.7 0.00 0.00 0.00 73 1011.8
20260904142331 22 13 3.2 9.7 0.00 0.00 0.00 73 1011.8
20260904142233 22 46 3.2 9.7 0.00 0.00 0.00 72 1011.8
20260904142156 22 61 4.8 9.7 0.00 0.00 0.00 71 1011.8
20260904142025 22 5 6.4 9.7 0.00 0.00 0.00 72 1011.9
20260904141940 22 360 4.8 9.7 0.00 0.00 0.00 74 1011.9
20260904141810 22 347 4.8 9.7 0.00 0.00 0.00 72 1011.9
20260904141730 22 319 6.4 9.7 0.00 0.00 0.00 72 1011.9
20260904141533 22 329 6.4 9.7 0.00 0.00 0.00 73 1011.9
20260904141456 22 27 6.4 9.7 0.00 0.00 0.00 73 1011.9
20260904141322 22 355 4.8 9.7 0.00 0.00 0.00 73 1011.9
20260904141236 22 35 3.2 9.7 0.00 0.00 0.00 74 1011.9
20260904141141 22 44 1.6 9.7 0.00 0.00 0.00 75 1011.9
20260904141038 22 360 1.6 9.7 0.00 0.00 0.00 73 1011.8
20260904140940 22 360 6.4 9.7 0.00 0.00 0.00 75 1011.9
20260904140824 22 360 4.8 9.7 0.00 0.00 0.00 76 1011.9
20260904140747 22 360 3.2 9.7 0.00 0.00 0.00 77 1011.9
20260904140709 22 348 0.0 6.4 0.00 0.00 0.00 77 1012.0
20260904140613 22 340 1.6 6.4 0.00 0.00 0.00 75 1011.9
20260904140514 22 340 1.6 6.4 0.00 0.00 0.00 76 1011.9
20260904140346 22 348 3.2 6.4 0.00 0.00 0.00 78 1011.9
20260904140224 22 340 3.2 6.4 0.00 0.00 0.00 77 1012.0
20260904140129 22 355 3.2 4.8 0.00 0.00 0.00 77 1012.0
20260904140051 22 337 1.6 4.8 0.00 0.00 0.00 78 1012.0
20260904135900 22 355 0.0 4.8 0.00 0.00 0.00 74 1011.9
20260904135813 22 355 0.0 4.8 0.00 0.00 0.00 75 1011.9
20260904135656 22 355 1.6 4.8 0.00 0.00 0.00 77 1012.0
20260904135617 22 355 1.6 4.8 0.00 0.00 0.00 78 1012.0
20260904135449 22 355 0.0 3.2 0.00 0.00 0.00 78 1012.0
20260904135325 22 355 0.0 3.2 0.00 0.00 0.00 77 1012.0
20260904135228 21 355 0.0 3.2 0.00 0.00 0.00 78 1012.0
20260904135154 21 355 0.0 3.2 0.00 0.00 0.00 78 1012.0
20260904135115 21 355 0.0 6.4 0.00 0.00 0.00 77 1012.0
20260904135022 21 355 0.0 6.4 0.00 0.00 0.00 77 1012.0
20260904134942 21 355 0.0 6.4 0.00 0.00 0.00 77 1012.0
20260904134813 21 355 0.0 6.4 0.00 0.00 0.00 77 1012.0
20260904134728 21 355 0.0 6.4 0.00 0.00 0.00 80 1012.0
20260904134557 21 355 1.6 6.4 0.00 0.00 0.00 80 1012.0
20260904134518 21 355 1.6 6.4 0.00 0.00 0.00 79 1012.0
20260904134340 21 355 3.2 6.4 0.00 0.00 0.00 80 1012.0
20260904134240 21 355 3.2 4.8 0.00 0.00 0.00 80 1012.0
20260904134125 21 355 1.6 4.8 0.00 0.00 0.00 82 1012.0
20260904134051 21 355 1.6 4.8 0.00 0.00 0.00 81 1011.9
20260904133953 21 355 1.6 4.8 0.00 0.00 0.00 81 1011.9
20260904133858 21 345 0.0 4.8 0.00 0.00 0.00 82 1011.9
20260904133738 21 43 0.0 3.2 0.00 0.00 0.00 82 1011.9
20260904133642 21 47 0.0 3.2 0.00 0.00 0.00 81 1012.0
20260904133545 21 47 0.0 3.2 0.00 0.00 0.00 81 1011.9
20260904133429 21 47 0.0 3.2 0.00 0.00 0.00 81 1011.9
20260904133350 21 47 1.6 3.2 0.00 0.00 0.00 81 1011.9
20260904133311 21 47 1.6 3.2 0.00 0.00 0.00 82 1011.9
20260904133215 21 46 0.0 1.6 0.00 0.00 0.00 83 1011.9
20260904133137 21 44 0.0 0.0 0.00 0.00 0.00 81 1011.9
20260904133011 21 44 0.0 0.0 0.00 0.00 0.00 81 1011.9
20260904132933 21 44 0.0 0.0 0.00 0.00 0.00 81 1011.9
20260904132736 21 44 0.0 0.0 0.00 0.00 0.00 83 1011.9
20260904132659 21 44 0.0 0.0 0.00 0.00 0.00 83 1011.9
20260904132604 21 44 0.0 0.0 0.00 0.00 0.00 82 1011.9
20260904132502 21 44 0.0 0.0 0.00 0.00 0.00 83 1011.9
20260904132313 20 44 0.0 0.0 0.00 0.00 0.00 85 1011.9
20260904132227 20 47 0.0 0.0 0.00 0.00 0.00 85 1011.9
20260904132058 20 48 0.0 0.0 0.00 0.00 0.00 85 1011.9
20260904132020 20 90 0.0 0.0 0.00 0.00 0.00 84 1011.9
20260904131901 20 90 0.0 0.0 0.00 0.00 0.00 85 1011.9
20260904131711 20 90 0.0 0.0 0.00 0.00 0.00 84 1011.9
20260904131636 20 90 0.0 0.0 0.00 0.00 0.00 85 1011.9
20260904131505 20 90 0.0 0.0 0.00 0.00 0.00 85 1012.0
20260904131420 20 90 0.0 0.0 0.00 0.00 0.00 85 1012.0
20260904131230 20 90 0.0 0.0 0.00 0.00 0.00 85 1012.0
20260904131125 20 90 0.0 0.0 0.00 0.00 0.00 86 1012.0
20260904131048 20 90 0.0 0.0 0.00 0.00 0.00 86 1012.0
20260904130924 20 90 0.0 0.0 0.00 0.00 0.00 86 1012.0
20260904130840 20 90 0.0 0.0 0.00 0.00 0.00 87 1012.0
20260904130711 20 90 0.0 0.0 0.00 0.00 0.00 87 1012.0
20260904130614 20 90 0.0 0.0 0.00 0.00 0.00 88 1012.0
20260904130446 20 90 0.0 0.0 0.00 0.00 0.00 88 1012.0
20260904130339 20 90 0.0 0.0 0.00 0.00 0.00 88 1012.0
20260904130301 20 90 0.0 0.0 0.00 0.00 0.00 87 1011.9
20260904130206 20 90 0.0 0.0 0.00 0.00 0.00 87 1012.0
20260904130107 20 90 0.0 0.0 0.00 0.00 0.00 87 1012.0
20260904125917 20 90 0.0 0.0 0.00 0.00 0.00 88 1011.9
20260904125831 20 90 0.0 0.0 0.00 0.00 0.00 88 1011.9
20260904125702 19 90 0.0 0.0 0.00 0.00 0.00 88 1012.0
20260904125541 19 90 0.0 0.0 0.00 0.00 0.00 89 1011.9
20260904125426 19 90 0.0 0.0 0.00 0.00 0.00 88 1011.9
20260904125352 19 90 0.0 0.0 0.00 0.00 0.00 88 1011.9
20260904125315 19 90 0.0 0.0 0.00 0.00 0.00 89 1012.0
20260904125217 19 90 0.0 0.0 0.00 0.00 0.00 88 1012.0
20260904125136 19 90 0.0 0.0 0.00 0.00 0.00 88 1012.0
20260904124947 19 90 0.0 0.0 0.00 0.00 0.00 89 1012.0
20260904124822 19 90 0.0 0.0 0.00 0.00 0.00 89 1012.0
20260904124726 19 90 0.0 0.0 0.00 0.00 0.00 90 1012.0
20260904124647 19 90 0.0 0.0 0.00 0.00 0.00 91 1012.0
20260904124508 19 90 0.0 0.0 0.00 0.00 0.00 90 1012.0
20260904124341 19 90 0.0 0.0 0.00 0.00 0.00 90 1012.0
20260904124306 19 90 0.0 0.0 0.00 0.00 0.00 90 1012.0
20260904124222 19 90 0.0 0.0 0.00 0.00 0.00 91 1012.0
20260904124144 19 90 0.0 0.0 0.00 0.00 0.00 91 1012.0
20260904124014 18 90 0.0 0.0 0.00 0.00 0.00 90 1012.0
20260904123929 18 90 0.0 0.0 0.00 0.00 0.00 91 1012.0
20260904123759 18 90 0.0 0.0 0.00 0.00 0.00 90 1012.0
20260904123719 18 90 0.0 0.0 0.00 0.00 0.00 90 1012.0
20260904123550 18 90 0.0 0.0 0.00 0.00 0.00 91 1012.0
20260904123504 18 90 0.0 0.0 0.00 0.00 0.00 91 1012.0
20260904123344 18 90 0.0 0.0 0.00 0.00 0.00 90 1011.9
20260904123154 18 90 0.0 0.0 0.00 0.00 0.00 89 1011.9
20260904123110 18 90 0.0 0.0 0.00 0.00 0.00 90 1011.9
20260904122951 18 90 0.0 0.0 0.00 0.00 0.00 90 1012.0
20260904122917 18 90 0.0 0.0 0.00 0.00 0.00 90 1011.9
20260904122720 18 90 0.0 0.0 0.00 0.00 0.00 89 1011.9
20260904122649 18 90 0.0 0.0 0.00 0.00 0.00 90 1012.0
20260904122535 18 90 0.0 0.0 0.00 0.00 0.00 90 1012.0
20260904122436 18 90 0.0 0.0 0.00 0.00 0.00 89 1012.0
20260904122359 18 90 0.0 0.0 0.00 0.00 0.00 89 1012.0
20260904122224 18 90 0.0 0.0 0.00 0.00 0.00 89 1012.0
20260904122139 18 90 0.0 0.0 0.00 0.00 0.00 89 1012.1
20260904122045 18 90 0.0 0.0 0.00 0.00 0.00 89 1012.0
20260904121948 18 90 0.0 0.0 0.00 0.00 0.00 90 1012.1
20260904121907 18 90 0.0 0.0 0.00 0.00 0.00 90 1012.1
20260904121737 18 90 0.0 0.0 0.00 0.00 0.00 89 1012.1
20260904121630 18 90 0.0 0.0 0.00 0.00 0.00 89 1012.1
20260904121501 18 90 0.0 0.0 0.00 0.00 0.00 90 1012.0
20260904121335 18 90 0.0 0.0 0.00 0.00 0.00 90 1012.0
20260904121258 18 90 0.0 0.0 0.00 0.00 0.00 90 1012.0
20260904121218 18 90 0.0 0.0 0.00 0.00 0.00 91 1012.1
20260904121051 18 90 0.0 0.0 0.00 0.00 0.00 91 1012.1
20260904121004 18 90 0.0 0.0 0.00 0.00 0.00 91 1012.1
20260904120830 18 90 0.0 0.0 0.00 0.00 0.00 92 1012.1
20260904120724 18 90 0.0 0.0 0.00 0.00 0.00 92 1012.1
20260904120647 18 90 0.0 0.0 0.00 0.00 0.00 92 1012.1
20260904120602 18 90 0.0 0.0 0.00 0.00 0.00 93 1012.1
20260904120443 18 90 0.0 0.0 0.00 0.00 0.00 93 1012.1
20260904120358 17 90 0.0 0.0 0.00 0.00 0.00 94 1012.1
20260904120320 17 90 0.0 0.0 0.00 0.00 0.00 94 1012.1
20260904120125 17 90 0.0 0.0 0.00 0.00 0.00 95 1012.1
20260904120047 17 90 0.0 0.0 0.00 0.00 0.00 95 1012.1
20260904115934 17 90 0.0 0.0 0.00 0.00 0.00 95 1012.0
20260904115829 17 90 0.0 0.0 0.00 0.00 0.00 95 1012.1
20260904115750 17 90 0.0 0.0 0.00 0.00 0.00 96 1012.1
20260904115656 17 90 0.0 0.0 0.00 0.00 0.00 96 1012.1
20260904115557 17 90 0.0 0.0 0.00 0.00 0.00 96 1012.0
20260904115520 17 90 0.0 0.0 0.00 0.00 0.00 96 1012.1
20260904115404 17 90 0.0 0.0 0.00 0.00 0.00 96 1012.1
20260904115326 17 90 0.0 0.0 0.00 0.00 0.00 96 1012.1
20260904115130 17 355 0.0 0.0 0.00 0.00 0.00 96 1012.1
20260904115033 17 347 0.0 0.0 0.00 0.00 0.00 96 1012.0
20260904114923 17 333 0.0 0.0 0.00 0.00 0.00 96 1012.1
20260904114845 17 333 0.0 0.0 0.00 0.00 0.00 96 1012.0
20260904114808 16 333 0.0 0.0 0.00 0.00 0.00 96 1012.0
20260904114713 16 333 0.0 0.0 0.00 0.00 0.00 96 1012.0
20260904114635 16 333 0.0 0.0 0.00 0.00 0.00 96 1012.0
20260904114504 16 333 0.0 0.0 0.00 0.00 0.00 96 1012.0
20260904114419 16 333 0.0 0.0 0.00 0.00 0.00 96 1012.0
20260904114230 16 333 0.0 0.0 0.00 0.00 0.00 96 1012.1
20260904114145 16 333 0.0 0.0 0.00 0.00 0.00 96 1012.0
20260904114016 16 333 0.0 0.0 0.00 0.00 0.00 96 1012.0
20260904113936 16 333 0.0 0.0 0.00 0.00 0.00 96 1012.0
20260904113813 16 333 0.0 0.0 0.00 0.00 0.00 96 1012.0
20260904113726 16 333 0.0 0.0 0.00 0.00 0.00 96 1012.0
20260904113538 15 333 0.0 0.0 0.00 0.00 0.00 96 1011.9
20260904113432 15 333 0.0 0.0 0.00 0.00 0.00 96 1011.9
20260904113355 15 331 0.0 0.0 0.00 0.00 0.00 96 1011.9
20260904113249 15 331 0.0 0.0 0.00 0.00 0.00 96 1011.9
20260904113150 15 331 0.0 0.0 0.00 0.00 0.00 96 1011.9
20260904112958 15 331 0.0 0.0 0.00 0.00 0.00 96 1011.8
20260904112833 15 331 0.0 0.0 0.00 0.00 0.00 96 1011.8
20260904112722 15 331 0.0 0.0 0.00 0.00 0.00 95 1011.8
20260904112644 15 331 0.0 0.0 0.00 0.00 0.00 95 1011.7
20260904112516 15 331 0.0 0.0 0.00 0.00 0.00 95 1011.8
20260904112430 15 331 0.0 0.0 0.00 0.00 0.00 95 1011.8
20260904112306 14 331 0.0 0.0 0.00 0.00 0.00 95 1011.7
20260904112227 14 331 0.0 0.0 0.00 0.00 0.00 95 1011.7
20260904112031 14 331 0.0 0.0 0.00 0.00 0.00 95 1011.7
20260904111934 14 331 0.0 0.0 0.00 0.00 0.00 95 1011.8
20260904111839 14 331 0.0 0.0 0.00 0.00 0.00 95 1011.7
20260904111800 14 331 0.0 0.0 0.00 0.00 0.00 95 1011.7
20260904111722 14 331 0.0 0.0 0.00 0.00 0.00 95 1011.7
20260904111609 14 331 0.0 0.0 0.00 0.00 0.00 95 1011.7
20260904111532 14 331 0.0 0.0 0.00 0.00 0.00 95 1011.7
20260904111336 14 331 0.0 0.0 0.00 0.00 0.00 95 1011.6
20260904111238 14 331 0.0 0.0 0.00 0.00 0.00 95 1011.6
20260904111124 14 331 0.0 0.0 0.00 0.00 0.00 95 1011.7
20260904111046 14 331 0.0 0.0 0.00 0.00 0.00 95 1011.6
20260904111010 14 331 0.0 0.0 0.00 0.00 0.00 95 1011.6
20260904110914 14 331 0.0 0.0 0.00 0.00 0.00 95 1011.6
20260904110836 14 331 0.0 0.0 0.00 0.00 0.00 95 1011.6
20260904110707 14 331 0.0 0.0 0.00 0.00 0.00 95 1011.6
20260904110636 14 331 0.0 0.0 0.00 0.00 0.00 95 1011.6
20260904110506 14 331 0.0 0.0 0.00 0.00 0.00 95 1011.6
20260904110428 14 331 0.0 0.0 0.00 0.00 0.00 95 1011.6
20260904110232 14 331 0.0 0.0 0.00 0.00 0.00 95 1011.6
20260904110155 14 331 0.0 0.0 0.00 0.00 0.00 95 1011.6
20260904110039 14 331 0.0 0.0 0.00 0.00 0.00 95 1011.6
20260904110002 14 331 0.0 0.0 0.00 0.00 0.00 95 1011.6
20260904105904 14 331 0.0 0.0 0.00 0.00 0.00 95 1011.6
20260904105757 14 331 0.0 0.0 0.00 0.00 0.00 95 1011.6
20260904105658 14 331 0.0 0.0 0.00 0.00 0.00 95 1011.6
20260904105600 14 331 0.0 0.0 0.00 0.00 0.00 95 1011.6
20260904105508 14 331 0.0 0.0 0.00 0.00 0.00 95 1011.5
20260904105430 14 331 0.0 0.0 0.00 0.00 0.00 95 1011.5
20260904105301 14 331 0.0 0.0 0.00 0.00 0.00 95 1011.5
20260904105154 14 331 0.0 0.0 0.00 0.00 0.00 95 1011.5
20260904104944 14 331 0.0 0.0 0.00 0.00 0.00 95 1011.5
20260904104839 14 331 0.0 0.0 0.00 0.00 0.00 95 1011.5
20260904104723 14 331 0.0 0.0 0.00 0.00 0.00 95 1011.4
20260904104626 14 331 0.0 0.0 0.00 0.00 0.00 95 1011.4
20260904104549 14 331 0.0 0.0 0.00 0.00 0.00 95 1011.4
20260904104457 14 331 0.0 0.0 0.00 0.00 0.00 95 1011.4
20260904104418 14 331 0.0 0.0 0.00 0.00 0.00 95 1011.4
20260904104249 14 331 0.0 0.0 0.00 0.00 0.00 95 1011.4
20260904104124 14 331 0.0 0.0 0.00 0.00 0.00 95 1011.4
20260904104029 14 331 0.0 0.0 0.00 0.00 0.00 95 1011.4
20260904103952 14 331 0.0 0.0 0.00 0.00 0.00 95 1011.4
20260904103913 14 331 0.0 0.0 0.00 0.00 0.00 95 1011.3
20260904103818 14 331 0.0 0.0 0.00 0.00 0.00 95 1011.4
20260904103740 14 331 0.0 0.0 0.00 0.00 0.00 94 1011.4
20260904103609 14 331 0.0 0.0 0.00 0.00 0.00 94 1011.4
20260904103525 14 331 0.0 0.0 0.00 0.00 0.00 95 1011.4
20260904103359 14 331 0.0 0.0 0.00 0.00 0.00 95 1011.4
20260904103320 14 331 0.0 0.0 0.00 0.00 0.00 94 1011.4
20260904103152 14 331 0.0 0.0 0.00 0.00 0.00 94 1011.3
20260904103107 14 331 0.0 0.0 0.00 0.00 0.00 94 1011.4
20260904102938 14 331 0.0 0.0 0.00 0.00 0.00 94 1011.2
20260904102840 14 331 0.0 0.0 0.00 0.00 0.00 94 1011.2
20260904102643 14 331 0.0 0.0 0.00 0.00 0.00 95 1011.3
20260904102605 14 331 0.0 0.0 0.00 0.00 0.00 95 1011.2
20260904102509 14 331 0.0 0.0 0.00 0.00 0.00 95 1011.2
20260904102431 14 331 0.0 0.0 0.00 0.00 0.00 95 1011.2
20260904102251 14 331 0.0 0.0 0.00 0.00 0.00 95 1011.3
20260904102122 14 331 0.0 0.0 0.00 0.00 0.00 95 1011.2
20260904101938 14 331 0.0 0.0 0.00 0.00 0.00 95 1011.2
20260904101859 14 331 0.0 0.0 0.00 0.00 0.00 95 1011.2
20260904101724 14 331 0.0 0.0 0.00 0.00 0.00 95 1011.2
20260904101638 14 331 0.0 0.0 0.00 0.00 0.00 94 1011.2
20260904101427 15 331 0.0 0.0 0.00 0.00 0.00 95 1011.2
20260904101323 15 331 0.0 0.0 0.00 0.00 0.00 95 1011.2
20260904101246 15 331 0.0 0.0 0.00 0.00 0.00 95 1011.1
20260904101201 15 331 0.0 0.0 0.00 0.00 0.00 94 1011.1
20260904101035 15 331 0.0 0.0 0.00 0.00 0.00 94 1011.1
20260904100936 15 331 0.0 0.0 0.00 0.00 0.00 94 1011.1
20260904100738 15 331 0.0 0.0 0.00 0.00 0.00 94 1011.1
20260904100641 15 331 0.0 0.0 0.00 0.00 0.00 94 1011.1
20260904100526 15 331 0.0 0.0 0.00 0.00 0.00 94 1011.1
20260904100447 15 331 0.0 0.0 0.00 0.00 0.00 94 1011.0
20260904100311 15 331 0.0 0.0 0.00 0.00 0.00 95 1011.0
20260904100233 15 331 0.0 0.0 0.00 0.00 0.00 95 1011.0
20260904100044 15 331 0.0 0.0 0.00 0.00 0.00 95 1011.0
20260904095940 15 331 0.0 0.0 0.00 0.00 0.00 95 1011.1
20260904095903 15 331 0.0 0.0 0.00 0.00 0.00 95 1011.1
20260904095809 15 331 0.0 0.0 0.00 0.00 0.00 95 1011.1
20260904095729 15 331 0.0 0.0 0.00 0.00 0.00 95 1011.1
20260904095601 15 331 0.0 0.0 0.00 0.00 0.00 95 1011.1
20260904095515 15 331 0.0 0.0 0.00 0.00 0.00 95 1011.1
20260904095327 15 331 0.0 0.0 0.00 0.00 0.00 95 1011.1
20260904095240 15 331 0.0 0.0 0.00 0.00 0.00 95 1011.1
20260904095143 15 331 0.0 0.0 0.00 0.00 0.00 95 1011.1
20260904095022 15 331 0.0 0.0 0.00 0.00 0.00 95 1011.1
20260904094936 15 331 0.0 0.0 0.00 0.00 0.00 95 1011.1
20260904094808 15 331 0.0 0.0 0.00 0.00 0.00 95 1011.1
20260904094730 15 331 0.0 0.0 0.00 0.00 0.00 95 1011.1
20260904094535 15 331 0.0 0.0 0.00 0.00 0.00 95 1011.0
20260904094438 15 331 0.0 0.0 0.00 0.00 0.00 95 1011.0
20260904094344 15 331 0.0 0.0 0.00 0.00 0.00 95 1011.0
20260904094225 15 331 0.0 0.0 0.00 0.00 0.00 95 1011.0
20260904094130 15 331 0.0 0.0 0.00 0.00 0.00 95 1011.0
20260904094030 15 331 0.0 0.0 0.00 0.00 0.00 95 1011.0
20260904093904 15 331 0.0 0.0 0.00 0.00 0.00 95 1011.0
20260904093818 15 331 0.0 0.0 0.00 0.00 0.00 95 1011.0
20260904093629 15 331 0.0 0.0 0.00 0.00 0.00 95 1010.9
20260904093546 15 331 0.0 0.0 0.00 0.00 0.00 95 1011.0
20260904093416 15 331 0.0 0.0 0.00 0.00 0.00 95 1010.9
20260904093339 15 331 0.0 0.0 0.00 0.00 0.00 95 1010.9
20260904093142 15 331 0.0 0.0 0.00 0.00 0.00 95 1010.9
20260904093046 15 331 0.0 0.0 0.00 0.00 0.00 95 1010.9
20260904092949 15 331 0.0 0.0 0.00 0.00 0.00 95 1010.9
20260904092912 15 331 0.0 0.0 0.00 0.00 0.00 95 1010.9
20260904092816 15 331 0.0 0.0 0.00 0.00 0.00 95 1010.9
20260904092721 15 331 0.0 0.0 0.00 0.00 0.00 95 1010.9
20260904092643 15 331 0.0 0.0 0.00 0.00 0.00 95 1010.9
20260904092515 15 331 0.0 0.0 0.00 0.00 0.00 95 1010.9
20260904092429 15 331 0.0 0.0 0.00 0.00 0.00 95 1010.9
20260904092300 15 331 0.0 0.0 0.00 0.00 0.00 95 1010.9
20260904092220 15 331 0.0 0.0 0.00 0.00 0.00 95 1010.9
20260904092052 15 331 0.0 0.0 0.00 0.00 0.00 95 1010.8
20260904091925 15 331 0.0 0.0 0.00 0.00 0.00 95 1010.8
20260904091848 15 331 0.0 0.0 0.00 0.00 0.00 95 1010.8
20260904091732 15 331 0.0 0.0 0.00 0.00 0.00 95 1010.8
20260904091658 15 331 0.0 0.0 0.00 0.00 0.00 95 1010.8
20260904091540 15 331 0.0 0.0 0.00 0.00 0.00 95 1010.8
20260904091503 15 331 0.0 0.0 0.00 0.00 0.00 95 1010.7
20260904091424 15 331 0.0 0.0 0.00 0.00 0.00 95 1010.7
20260904091320 15 331 0.0 0.0 0.00 0.00 0.00 95 1010.7
20260904091241 15 331 0.0 0.0 0.00 0.00 0.00 95 1010.7
20260904091113 15 331 0.0 0.0 0.00 0.00 0.00 95 1010.7
20260904091028 15 331 0.0 0.0 0.00 0.00 0.00 95 1010.7
20260904090859 15 331 0.0 0.0 0.00 0.00 0.00 95 1010.7
20260904090820 15 331 0.0 0.0 0.00 0.00 0.00 95 1010.7
20260904090625 15 331 0.0 0.0 0.00 0.00 0.00 95 1010.7
20260904090532 15 331 0.0 0.0 0.00 0.00 0.00 95 1010.7
20260904090436 15 331 0.0 0.0 0.00 0.00 0.00 95 1010.7
20260904090338 15 331 0.0 0.0 0.00 0.00 0.00 95 1010.7
20260904090208 15 331 0.0 0.0 0.00 0.00 0.00 94 1010.7
20260904090124 15 331 0.0 0.0 0.00 0.00 0.00 94 1010.7
20260904085953 15 331 0.0 0.0 0.00 0.00 0.00 94 1010.7
20260904085914 15 331 0.0 0.0 0.00 0.00 0.00 94 1010.6
20260904085758 15 331 0.0 0.0 0.00 0.00 0.00 94 1010.6
20260904085638 15 331 0.0 0.0 0.00 0.00 0.00 94 1010.6
20260904085523 15 331 0.0 0.0 0.00 0.00 0.00 94 1010.5
20260904085445 15 331 0.0 0.0 0.00 0.00 0.00 94 1010.5
20260904085350 15 331 0.0 0.0 0.00 0.00 0.00 94 1010.5
20260904085256 15 331 0.0 0.0 0.00 0.00 0.00 94 1010.5
20260904085137 15 331 0.0 0.0 0.00 0.00 0.00 94 1010.6
20260904085043 15 331 0.0 0.0 0.00 0.00 0.00 94 1010.5
20260904084943 15 331 0.0 0.0 0.00 0.00 0.00 94 1010.6
20260904084814 15 331 0.0 0.0 0.00 0.00 0.00 94 1010.6
20260904084729 15 331 0.0 0.0 0.00 0.00 0.00 94 1010.6
20260904084540 15 331 0.0 0.0 0.00 0.00 0.00 94 1010.6
20260904084454 15 331 0.0 0.0 0.00 0.00 0.00 94 1010.6
20260904084245 15 331 0.0 0.0 0.00 0.00 0.00 94 1010.6
20260904084211 15 331 0.0 0.0 0.00 0.00 0.00 95 1010.6
20260904084035 15 331 0.0 0.0 0.00 0.00 0.00 95 1010.6
20260904083958 15 331 0.0 0.0 0.00 0.00 0.00 94 1010.6
20260904083840 15 331 0.0 0.0 0.00 0.00 0.00 94 1010.6
20260904083803 16 331 0.0 0.0 0.00 0.00 0.00 94 1010.6
20260904083725 16 331 0.0 0.0 0.00 0.00 0.00 95 1010.5
20260904083607 16 331 0.0 0.0 0.00 0.00 0.00 95 1010.5
20260904083530 16 331 0.0 0.0 0.00 0.00 0.00 95 1010.5
20260904083334 16 331 0.0 0.0 0.00 0.00 0.00 95 1010.6
20260904083236 16 331 0.0 0.0 0.00 0.00 0.00 95 1010.6
20260904083124 16 331 0.0 0.0 0.00 0.00 0.00 95 1010.6
20260904083047 16 331 0.0 0.0 0.00 0.00 0.00 95 1010.6
20260904082919 16 331 0.0 0.0 0.00 0.00 0.00 94 1010.7
20260904082833 16 331 0.0 0.0 0.00 0.00 0.00 94 1010.7
20260904082644 16 331 0.0 0.0 0.00 0.00 0.00 94 1010.7
20260904082539 16 331 0.0 0.0 0.00 0.00 0.00 95 1010.7
20260904082427 16 331 0.0 0.0 0.00 0.00 0.00 95 1010.7
20260904082350 16 331 0.0 0.0 0.00 0.00 0.00 95 1010.7
20260904082137 16 331 0.0 0.0 0.00 0.00 0.00 94 1010.7
20260904082040 16 331 0.0 0.0 0.00 0.00 0.00 95 1010.7
20260904081945 16 115 0.0 0.0 0.00 0.00 0.00 95 1010.6
20260904081907 16 115 0.0 0.0 0.00 0.00 0.00 95 1010.6
20260904081647 16 115 0.0 0.0 0.00 0.00 0.00 95 1010.7
20260904081541 16 115 0.0 0.0 0.00 0.00 0.00 95 1010.6
20260904081412 16 115 0.0 0.0 0.00 0.00 0.00 95 1010.6
20260904081314 16 115 0.0 0.0 0.00 0.00 0.00 95 1010.6
20260904081210 16 115 0.0 0.0 0.00 0.00 0.00 95 1010.6
20260904081114 16 115 0.0 0.0 0.00 0.00 0.00 95 1010.6
20260904081035 16 115 0.0 0.0 0.00 0.00 0.00 95 1010.6
20260904080907 16 5 0.0 0.0 0.00 0.00 0.00 95 1010.7
20260904080827 16 5 0.0 0.0 0.00 0.00 0.00 95 1010.7
20260904080656 16 5 0.0 0.0 0.00 0.00 0.00 95 1010.7
20260904080621 16 5 0.0 0.0 0.00 0.00 0.00 95 1010.7
20260904080535 16 5 0.0 0.0 0.00 0.00 0.00 95 1010.7
20260904080405 16 5 0.0 0.0 0.00 0.00 0.00 95 1010.7
20260904080328 16 5 0.0 0.0 0.00 0.00 0.00 95 1010.7
20260904080132 16 5 0.0 0.0 0.00 0.00 0.00 95 1010.7
20260904080055 16 5 0.0 0.0 0.00 0.00 0.00 95 1010.7
20260904075939 16 5 0.0 0.0 0.00 0.00 0.00 95 1010.6
20260904075902 16 5 0.0 0.0 0.00 0.05 0.00 95 1010.6
20260904075729 16 5 0.0 0.0 0.00 0.05 0.00 95 1010.7
20260904075650 16 5 0.0 0.0 0.00 0.05 0.00 95 1010.7
20260904075613 16 5 0.0 0.0 0.00 0.05 0.00 95 1010.7
20260904075518 16 5 0.0 0.0 0.00 0.05 0.00 95 1010.7
20260904075439 16 5 0.0 0.0 0.00 0.05 0.00 95 1010.7
20260904075308 16 5 0.0 0.0 0.00 0.05 0.00 95 1010.7
20260904075200 16 5 0.0 0.0 0.00 0.05 0.00 95 1010.7
20260904075030 16 5 0.0 0.0 0.00 0.05 0.00 95 1010.6
20260904074930 16 5 0.0 0.0 0.00 0.05 0.00 95 1010.6
20260904074732 16 5 0.0 0.0 0.00 0.05 0.00 95 1010.6
20260904074653 16 5 0.0 0.0 0.00 0.05 0.00 95 1010.6
20260904074542 16 5 0.0 0.0 0.00 0.05 0.00 95 1010.6
20260904074503 16 5 0.0 0.0 0.00 0.05 0.00 95 1010.6
20260904074332 16 5 0.0 0.0 0.00 0.05 0.00 95 1010.6
20260904074223 16 5 0.0 0.0 0.00 0.05 0.00 95 1010.6
20260904074034 16 5 0.0 0.0 0.00 0.05 0.00 95 1010.6
20260904073929 16 5 0.0 0.0 0.00 0.05 0.00 95 1010.6
20260904073824 16 5 0.0 0.0 0.00 0.05 0.00 95 1010.6
20260904073744 16 5 0.0 0.0 0.00 0.05 0.00 95 1010.6
20260904073627 16 5 0.0 0.0 0.00 0.05 0.00 95 1010.6
20260904073553 16 5 0.0 0.0 0.00 0.05 0.00 95 1010.6
20260904073401 16 5 0.0 0.0 0.00 0.05 0.00 95 1010.7
20260904073318 16 5 0.0 0.0 0.00 0.05 0.00 95 1010.7
20260904073127 16 5 0.0 0.0 0.00 0.05 0.00 95 1010.6
20260904073043 16 5 0.0 0.0 0.00 0.05 0.00 95 1010.6
20260904072945 16 5 0.0 0.0 0.00 0.05 0.00 95 1010.6
20260904072906 16 5 0.0 0.0 0.00 0.05 0.00 95 1010.6
20260904072822 16 5 0.0 0.0 0.00 0.05 0.00 95 1010.6
20260904072631 16 5 0.0 0.0 0.00 0.05 0.00 95 1010.6
20260904072545 16 32 0.0 0.0 0.00 0.05 0.00 95 1010.5
20260904072418 16 65 0.0 0.0 0.00 0.05 0.00 95 1010.5
20260904072343 16 65 0.0 0.0 0.00 0.05 0.00 95 1010.5
20260904072213 16 65 0.0 0.0 0.00 0.05 0.00 95 1010.5
20260904072128 16 65 0.0 0.0 0.00 0.05 0.00 95 1010.5
20260904071957 16 65 0.0 0.0 0.00 0.05 0.00 95 1010.5
20260904071921 16 65 0.0 0.0 0.00 0.05 0.00 95 1010.5
20260904071835 16 65 0.0 0.0 0.00 0.05 0.00 95 1010.5
20260904071704 16 65 0.0 0.0 0.00 0.05 0.00 95 1010.5
20260904071626 16 65 0.0 0.0 0.00 0.05 0.00 95 1010.5
20260904071421 16 65 0.0 0.0 0.00 0.05 0.00 95 1010.6
20260904071200 16 65 0.0 0.0 0.00 0.05 0.00 95 1010.7
20260904071115 16 65 0.0 0.0 0.00 0.05 0.00 95 1010.7
20260904070945 16 44 0.0 0.0 0.00 0.05 0.00 95 1010.7
20260904070848 16 44 0.0 0.0 0.00 0.05 0.00 95 1010.8
20260904070718 16 336 0.0 0.0 0.00 0.05 0.00 95 1010.7
20260904070632 16 336 0.0 0.0 0.00 0.05 0.00 95 1010.7
20260904070443 16 336 0.0 0.0 0.00 0.05 0.00 95 1010.7
20260904070337 16 336 0.0 0.0 0.00 0.05 0.00 95 1010.7
20260904070258 16 336 0.0 0.0 0.00 0.05 0.00 95 1010.7
20260904070202 16 336 0.0 0.0 0.00 0.05 0.00 95 1010.6
20260904065911 16 336 0.0 0.0 0.00 0.46 0.00 95 1010.6
20260904065827 16 360 0.0 0.0 0.00 0.46 0.00 95 1010.6
20260904065640 16 59 0.0 0.0 0.00 0.46 0.00 95 1010.5
20260904065536 16 59 0.0 0.0 0.00 0.46 0.00 95 1010.6
20260904065431 16 59 0.0 0.0 0.00 0.46 0.00 95 1010.5
20260904065351 16 59 0.0 0.0 0.00 0.46 0.00 95 1010.5
20260904065211 16 59 0.0 0.0 0.00 0.46 0.00 95 1010.6
20260904065126 16 59 0.0 0.0 0.00 0.46 0.00 95 1010.6
20260904064935 16 59 0.0 0.0 0.00 0.46 0.00 95 1010.6
20260904064830 16 59 0.0 0.0 0.00 0.46 0.00 95 1010.6
20260904064726 16 59 0.0 0.0 0.00 0.46 0.00 95 1010.5
20260904064648 16 59 0.0 0.0 0.00 0.46 0.00 95 1010.5
20260904064518 16 59 0.0 0.0 0.00 0.46 0.00 95 1010.5
20260904064432 16 59 0.0 0.0 0.00 0.46 0.00 95 1010.5
20260904064242 16 59 0.0 0.0 0.00 0.46 0.00 95 1010.5
20260904064138 16 59 0.0 0.0 0.00 0.46 0.00 95 1010.5
20260904064023 16 59 0.0 0.0 0.00 0.46 0.00 95 1010.5
20260904063944 16 59 0.0 0.0 0.00 0.46 0.00 95 1010.5
20260904063813 16 59 0.0 0.0 0.00 0.46 0.00 95 1010.5
20260904063728 16 59 0.0 0.0 0.00 0.46 0.00 95 1010.5
20260904063601 16 59 0.0 0.0 0.00 0.46 0.00 95 1010.5
20260904063524 16 59 0.0 0.0 0.00 0.46 0.00 95 1010.5
20260904063353 16 59 0.0 0.0 0.00 0.46 0.00 95 1010.6
20260904063226 16 59 0.0 0.0 0.00 0.46 0.00 95 1010.6
20260904063147 16 59 0.0 0.0 0.00 0.46 0.00 95 1010.6
20260904063052 16 59 0.0 0.0 0.00 0.46 0.00 95 1010.6
20260904063014 16 59 0.0 0.0 0.00 0.46 0.00 95 1010.7
20260904062822 16 59 0.0 0.0 0.00 0.46 0.00 95 1010.8
20260904062716 16 59 0.0 0.0 0.00 0.46 0.00 95 1010.8
20260904062546 16 59 0.0 0.0 0.00 0.46 0.00 95 1010.8
20260904062447 16 59 0.0 0.0 0.00 0.46 0.00 95 1010.8
20260904062233 16 334 0.0 0.0 0.00 0.46 0.00 95 1010.8
20260904062155 16 334 0.0 0.0 0.00 0.46 0.00 95 1010.8
20260904062057 16 334 0.0 0.0 0.00 0.46 0.00 95 1010.8
20260904062019 16 334 0.0 0.0 0.00 0.46 0.00 95 1010.8
20260904061821 16 334 0.0 0.0 0.00 0.46 0.00 95 1010.8
20260904061733 16 334 0.0 0.0 0.00 0.46 0.00 95 1010.9
20260904061627 16 334 0.0 0.0 0.00 0.46 0.00 95 1010.9
20260904061548 16 334 0.0 0.0 0.00 0.46 0.00 95 1010.8
20260904061331 16 334 0.0 0.0 0.00 0.46 0.00 95 1010.9
20260904061255 16 334 0.0 0.0 0.00 0.46 0.00 95 1010.9
20260904061158 16 334 0.0 0.0 0.00 0.46 0.00 95 1010.9
20260904061037 16 334 0.0 0.0 0.00 0.46 0.00 95 1010.8
20260904060950 16 334 0.0 0.0 0.00 0.46 0.00 95 1010.9
20260904060830 16 334 0.0 0.0 0.00 0.46 0.00 95 1010.9
20260904060753 16 334 0.0 0.0 0.00 0.46 0.00 95 1010.9
20260904060635 16 334 0.0 0.0 0.00 0.46 0.00 95 1010.9
20260904060558 16 334 0.0 0.0 0.00 0.46 0.00 94 1010.9
20260904060441 16 334 0.0 0.0 0.00 0.46 0.00 94 1010.9
20260904060402 16 334 0.0 0.0 0.00 0.46 0.00 94 1010.9
20260904060327 16 334 0.0 0.0 0.00 0.46 0.00 94 1011.0
20260904060210 16 334 0.0 0.0 0.00 0.46 0.00 94 1010.9
20260904060132 16 334 0.0 0.0 0.00 0.46 0.00 94 1010.9
20260904060001 16 334 0.0 0.0 0.00 0.46 0.00 94 1010.9
20260904055915 16 334 0.0 0.0 0.00 0.51 0.00 94 1011.0
20260904055723 16 334 0.0 0.0 0.00 0.51 0.00 94 1011.0
20260904055639 16 334 0.0 0.0 0.00 0.51 0.00 94 1011.0
20260904055447 16 334 0.0 0.0 0.00 0.51 0.00 94 1011.0
20260904055347 16 334 0.0 0.0 0.00 0.51 0.00 94 1011.0
20260904055241 16 334 0.0 0.0 0.00 0.51 0.00 94 1010.9
20260904055202 16 334 0.0 0.0 0.00 0.51 0.00 94 1010.9
20260904055120 16 334 0.0 0.0 0.00 0.51 0.00 94 1010.9
20260904054930 16 334 0.0 0.0 0.00 0.51 0.00 94 1011.0
20260904054844 16 334 0.0 0.0 0.00 0.51 0.00 94 1011.0
20260904054714 16 334 0.0 0.0 0.00 0.51 0.00 94 1011.0
20260904054613 16 334 0.0 0.0 0.00 0.51 0.00 94 1011.0
20260904054436 16 334 0.0 0.0 0.00 0.51 0.00 94 1011.0
20260904054357 16 334 0.0 0.0 0.00 0.51 0.00 94 1011.0
20260904054321 16 334 0.0 0.0 0.00 0.51 0.00 94 1011.0
20260904054223 16 334 0.0 0.0 0.00 0.51 0.00 94 1011.0
20260904054123 16 334 0.0 0.0 0.00 0.51 0.00 94 1011.0
20260904053930 16 334 0.0 0.0 0.00 0.51 0.00 94 1011.0
20260904053830 16 334 0.0 0.0 0.00 0.51 0.00 94 1011.0
20260904053734 16 334 0.0 0.0 0.00 0.51 0.00 94 1011.0
20260904053655 16 334 0.0 0.0 0.00 0.51 0.00 94 1011.0
20260904053616 16 334 0.0 0.0 0.00 0.51 0.00 94 1011.0
20260904053521 16 334 0.0 0.0 0.00 0.51 0.00 94 1011.0
20260904053422 16 334 0.0 0.0 0.00 0.51 0.00 94 1011.0
20260904053226 16 334 0.0 0.0 0.00 0.51 0.00 94 1011.1
20260904053127 16 334 0.0 0.0 0.00 0.51 0.00 94 1011.1
20260904053031 16 334 0.0 0.0 0.00 0.51 0.00 94 1011.0
20260904052936 16 334 0.0 0.0 0.00 0.51 0.00 94 1011.0
20260904052806 16 334 0.0 0.0 0.00 0.51 0.00 94 1011.1
20260904052720 16 334 0.0 0.0 0.00 0.51 0.00 94 1011.1
20260904052532 16 334 0.0 0.0 0.00 0.51 0.00 94 1011.1
20260904052447 16 334 0.0 0.0 0.00 0.51 0.00 94 1011.1
20260904052316 16 334 0.0 0.0 0.00 0.51 0.00 94 1011.1
20260904052237 16 334 0.0 0.0 0.00 0.51 0.00 94 1011.1
20260904052040 16 334 0.0 0.0 0.00 0.51 0.00 94 1011.1
20260904051959 16 334 0.0 0.0 0.00 0.51 0.00 94 1011.0
20260904051843 16 334 0.0 0.0 0.00 0.51 0.00 94 1011.0
20260904051808 16 334 0.0 0.0 0.00 0.51 0.00 94 1011.0
20260904051617 16 334 0.0 0.0 0.00 0.51 0.00 94 1011.1
20260904051532 16 334 0.0 0.0 0.00 0.51 0.00 94 1011.1
20260904051342 16 334 0.0 0.0 0.00 0.51 0.00 93 1011.1
20260904051218 16 334 0.0 0.0 0.00 0.51 0.00 93 1011.1
20260904051142 16 334 0.0 0.0 0.00 0.51 0.00 93 1011.1
20260904051042 16 334 0.0 0.0 0.00 0.51 0.00 93 1011.1
20260904050911 16 334 0.0 0.0 0.00 0.51 0.00 93 1011.1
20260904050815 16 334 0.0 0.0 0.00 0.51 0.00 93 1011.1
20260904050736 16 334 0.0 0.0 0.00 0.51 0.00 93 1011.1
20260904050610 16 314 0.0 0.0 0.00 0.51 0.00 94 1011.1
20260904050423 16 314 0.0 0.0 0.00 0.51 0.00 94 1011.1
20260904050327 16 314 0.0 0.0 0.00 0.51 0.00 94 1011.1
20260904050248 16 314 0.0 0.0 0.00 0.51 0.00 94 1011.1
20260904050118 16 314 0.0 0.0 0.00 0.51 0.00 94 1011.1
20260904050032 16 314 0.0 0.0 0.00 0.51 0.00 94 1011.1
20260904045901 16 314 0.0 0.0 0.00 0.79 0.00 94 1011.1
20260904045824 16 314 0.0 0.0 0.00 0.79 0.00 93 1011.1
20260904045627 16 314 0.0 0.0 0.00 0.79 0.00 93 1011.2
20260904045547 16 314 0.0 0.0 0.00 0.79 0.00 93 1011.2
20260904045455 17 314 0.0 0.0 0.00 0.79 0.00 93 1011.1
20260904045416 17 314 0.0 0.0 0.00 0.79 0.00 93 1011.1
20260904045245 17 314 0.0 0.0 0.00 0.79 0.00 93 1011.2
20260904045140 17 314 0.0 0.0 0.00 0.79 0.00 94 1011.2
20260904045023 17 314 0.0 0.0 0.00 0.79 0.00 94 1011.2
20260904044944 17 314 0.0 0.0 0.00 0.79 0.00 94 1011.2
20260904044905 17 314 0.0 0.0 0.00 0.79 0.00 94 1011.1
20260904044759 17 314 0.0 0.0 0.00 0.79 0.00 94 1011.2
20260904044659 17 314 0.0 0.0 0.00 0.79 0.00 94 1011.2
20260904044528 17 314 0.0 0.0 0.00 0.79 0.00 93 1011.2
20260904044430 17 314 0.0 0.0 0.00 0.79 0.00 93 1011.2
20260904044317 17 314 0.0 0.0 0.00 0.79 0.00 93 1011.2
20260904044240 17 314 0.0 0.0 0.00 0.79 0.00 93 1011.2
20260904044109 17 314 0.0 0.0 0.00 0.79 0.00 93 1011.2
20260904044023 17 314 0.0 0.0 0.00 0.79 0.00 93 1011.2
20260904043834 17 314 0.0 0.0 0.00 0.79 0.00 93 1011.2
20260904043747 17 314 0.0 0.0 0.00 0.79 0.00 94 1011.2
20260904043617 17 314 0.0 0.0 0.00 0.79 0.00 94 1011.3
20260904043517 17 314 0.0 0.0 0.00 0.79 0.00 94 1011.3
20260904043340 17 314 0.0 0.0 0.00 0.79 0.00 94 1011.3
20260904043242 17 314 0.0 0.0 0.00 0.79 0.00 93 1011.3
20260904043129 17 314 0.0 0.0 0.00 0.79 0.00 93 1011.4
20260904043051 17 314 0.0 0.0 0.00 0.79 0.00 93 1011.4
20260904042832 17 314 0.0 0.0 0.00 0.79 0.00 94 1011.4
20260904042753 17 314 0.0 0.0 0.00 0.79 0.00 94 1011.4
20260904042657 17 314 0.0 0.0 0.00 0.79 0.00 94 1011.4
20260904042537 17 314 0.0 0.0 0.00 0.79 0.00 94 1011.4
20260904042502 17 314 0.0 0.0 0.00 0.79 0.00 94 1011.5
20260904042404 17 314 0.0 0.0 0.00 0.79 0.00 94 1011.5
20260904042325 17 314 0.0 0.0 0.00 0.79 0.00 94 1011.5
20260904042128 17 314 0.0 0.0 0.00 0.79 0.00 94 1011.5
20260904042032 17 314 0.0 0.0 0.00 0.79 0.00 94 1011.6
20260904041938 17 314 0.0 0.0 0.00 0.79 0.00 94 1011.5
20260904041859 17 314 0.0 0.0 0.00 0.79 0.00 94 1011.5
20260904041821 17 314 0.0 0.0 0.00 0.79 0.00 94 1011.5
20260904041713 17 314 0.0 0.0 0.00 0.79 0.00 94 1011.4
20260904041614 17 314 0.0 0.0 0.00 0.79 0.00 94 1011.5
20260904041444 17 314 0.0 0.0 0.00 0.79 0.00 94 1011.5
20260904041338 17 314 0.0 0.0 0.00 0.79 0.00 94 1011.5
20260904041309 17 314 0.0 0.0 0.00 0.79 0.00 94 1011.5
20260904041212 17 314 0.0 0.0 0.00 0.79 0.00 94 1011.6
20260904041133 17 314 0.0 0.0 0.00 0.79 0.00 94 1011.6
20260904041007 17 314 0.0 0.0 0.00 0.79 0.00 94 1011.5
20260904040921 17 314 0.0 0.0 0.00 0.79 0.00 94 1011.5
20260904040750 17 314 0.0 0.0 0.00 0.79 0.00 94 1011.6
20260904040710 17 314 0.0 0.0 0.00 0.79 0.00 94 1011.6
20260904040613 17 314 0.0 0.0 0.00 0.79 0.00 93 1011.6
20260904040515 17 314 0.0 0.0 0.00 0.79 0.00 93 1011.6
20260904040437 17 314 0.0 0.0 0.00 0.79 0.00 93 1011.6
20260904040215 17 314 0.0 0.0 0.00 0.79 0.00 94 1011.7
20260904040129 17 314 0.0 0.0 0.00 0.79 0.00 94 1011.7
20260904035942 17 314 0.0 0.0 0.00 0.79 0.00 93 1011.7
20260904035858 17 314 0.0 0.0 0.00 0.79 0.79 93 1011.6
20260904035707 17 314 0.0 0.0 0.00 0.79 0.79 94 1011.6
20260904035634 17 314 0.0 0.0 0.00 0.79 0.79 94 1011.6
20260904035457 17 314 0.0 0.0 0.00 0.79 0.79 93 1011.6
20260904035420 17 314 0.0 0.0 0.00 0.79 0.79 93 1011.6
20260904035229 17 314 0.0 0.0 0.00 0.79 0.79 93 1011.6
20260904035144 17 314 0.0 0.0 0.00 0.79 0.79 93 1011.6
20260904035015 17 314 0.0 0.0 0.00 0.79 0.79 93 1011.6
20260904034938 17 314 0.0 0.0 0.00 0.79 0.79 93 1011.6
20260904034740 17 314 0.0 0.0 0.00 0.79 0.79 93 1011.6
20260904034701 17 314 0.0 0.0 0.00 0.79 0.79 93 1011.6
20260904034605 17 314 0.0 0.0 0.00 0.79 0.79 93 1011.6
20260904034526 17 314 0.0 0.0 0.00 0.79 0.79 93 1011.6
20260904034335 17 314 0.0 0.0 0.00 0.79 0.79 93 1011.6
20260904034236 17 314 0.0 0.0 0.00 0.79 0.79 93 1011.6
20260904034140 17 314 0.0 0.0 0.00 0.79 0.79 93 1011.6
20260904034041 18 314 0.0 0.0 0.00 0.79 0.79 93 1011.6
20260904033936 18 314 0.0 0.0 0.00 0.79 0.79 93 1011.6
20260904033838 18 314 0.0 0.0 0.00 0.79 0.79 93 1011.6
20260904033803 18 314 0.0 0.0 0.00 0.79 0.79 93 1011.6
20260904033706 18 314 0.0 0.0 0.00 0.79 0.79 93 1011.6
20260904033628 18 314 0.0 0.0 0.00 0.79 0.79 93 1011.5
20260904033443 18 314 0.0 0.0 0.00 0.79 0.79 93 1011.5
20260904033337 18 314 0.0 0.0 0.00 0.79 0.79 93 1011.5
20260904033207 18 314 0.0 0.0 0.00 0.79 0.79 93 1011.4
20260904033107 18 314 0.0 0.0 0.00 0.79 0.79 93 1011.4
20260904033000 18 314 0.0 0.0 0.00 0.79 0.79 94 1011.4
20260904032840 18 314 0.0 0.0 0.00 0.79 0.79 94 1011.4
20260904032745 18 314 0.0 0.0 0.00 0.79 0.79 94 1011.4
20260904032626 18 314 0.0 0.0 0.00 0.79 0.79 94 1011.4
20260904032531 18 314 0.0 0.0 0.00 0.79 0.79 93 1011.4
20260904032432 18 314 0.0 0.0 0.00 0.79 0.79 93 1011.4
20260904032357 18 314 0.0 0.0 0.00 0.79 0.79 93 1011.4
20260904032305 18 314 0.0 0.0 0.00 0.79 0.79 93 1011.4
20260904032223 18 314 0.0 0.0 0.00 0.79 0.79 93 1011.4
20260904032029 18 314 0.0 0.0 0.00 0.79 0.79 93 1011.3
20260904031932 18 314 0.0 0.0 0.00 0.79 0.79 93 1011.4
20260904031835 18 314 0.0 0.0 0.00 0.79 0.79 93 1011.4
20260904031755 18 314 0.0 0.0 0.00 0.79 0.79 94 1011.4
20260904031717 18 314 0.0 0.0 0.00 0.79 0.79 94 1011.4
20260904031602 18 314 0.0 0.0 0.00 0.79 0.79 94 1011.4
20260904031525 18 314 0.0 0.0 0.00 0.79 0.79 94 1011.4
20260904031340 18 314 0.0 0.0 0.00 0.79 0.79 94 1011.4
20260904031233 18 314 0.0 0.0 0.00 0.79 0.79 93 1011.4
20260904031155 18 314 0.0 0.0 0.00 0.79 0.79 93 1011.4
20260904031121 18 314 0.0 0.0 0.00 0.79 0.79 93 1011.4
20260904031018 18 314 0.0 0.0 0.00 0.79 0.79 93 1011.4
20260904030823 18 314 0.0 0.0 0.00 0.79 0.79 93 1011.4
20260904030724 18 314 0.0 0.0 0.00 0.79 0.79 93 1011.4
20260904030628 18 314 0.0 0.0 0.00 0.79 0.79 93 1011.4
20260904030550 18 314 0.0 0.0 0.00 0.79 0.79 93 1011.4
20260904030358 18 314 0.0 0.0 0.00 0.79 0.79 94 1011.4
20260904030319 18 314 0.0 0.0 0.00 0.79 0.79 94 1011.5
20260904030128 18 314 0.0 0.0 0.00 0.79 0.79 94 1011.5
20260904030042 18 314 0.0 0.0 0.00 0.79 0.79 94 1011.4
20260904025912 18 314 0.0 0.0 0.00 0.79 0.79 94 1011.5
20260904025834 18 314 0.0 0.0 0.00 0.79 0.79 93 1011.5
20260904025703 18 314 0.0 0.0 0.00 0.79 0.79 93 1011.6
20260904025618 18 314 0.0 0.0 0.00 0.79 0.79 93 1011.6
20260904025429 18 314 0.0 0.0 0.00 0.79 0.79 93 1011.5
20260904025345 18 314 0.0 0.0 0.00 0.79 0.79 93 1011.5
20260904025215 18 314 0.0 0.0 0.00 0.79 0.79 93 1011.5
20260904025116 18 314 0.0 0.0 0.00 0.79 0.79 93 1011.6
20260904024922 18 314 0.0 0.0 0.00 0.79 0.79 93 1011.6
20260904024848 18 314 0.0 0.0 0.00 0.79 0.79 93 1011.6
20260904024656 18 314 0.0 0.0 0.00 0.79 0.79 93 1011.6
20260904024617 18 314 0.0 0.0 0.00 0.79 0.79 93 1011.6
20260904024441 18 314 0.0 0.0 0.00 0.79 0.79 93 1011.6
20260904024344 18 314 0.0 0.0 0.00 0.79 0.79 93 1011.6
20260904024247 18 314 0.0 0.0 0.00 0.79 0.79 93 1011.6
20260904024148 18 314 0.0 0.0 0.00 0.79 0.79 93 1011.7
20260904024018 18 314 0.0 0.0 0.00 0.79 0.79 93 1011.7
20260904023923 18 314 0.0 0.0 0.00 0.79 0.79 93 1011.7
20260904023757 18 314 0.0 0.0 0.00 0.79 0.79 93 1011.6
20260904023656 18 314 0.0 0.0 0.00 0.79 0.79 93 1011.6
20260904023618 18 314 0.0 0.0 0.00 0.79 0.79 93 1011.6
20260904023522 18 314 0.0 0.0 0.00 0.79 0.79 93 1011.6
20260904023423 18 314 0.0 0.0 0.00 0.79 0.79 93 1011.6
20260904023225 18 314 0.0 0.0 0.00 0.79 0.79 93 1011.6
20260904023126 18 314 0.0 0.0 0.00 0.79 0.79 93 1011.6
20260904023031 18 314 0.0 0.0 0.00 0.79 0.79 93 1011.6
20260904022953 18 314 0.0 0.0 0.00 0.79 0.79 93 1011.6
20260904022915 18 314 0.0 0.0 0.00 0.79 0.79 93 1011.7
20260904022757 18 314 0.0 0.0 0.00 0.79 0.79 93 1011.7
20260904022724 18 314 0.0 0.0 0.00 0.79 0.79 93 1011.7
20260904022555 18 314 0.0 0.0 0.00 0.79 0.79 93 1011.6
20260904022510 18 314 0.0 0.0 0.00 0.79 0.79 93 1011.6
20260904022318 18 314 0.0 0.0 0.00 0.79 0.79 93 1011.6
20260904022239 18 314 0.0 0.0 0.00 0.79 0.79 93 1011.6
20260904022110 18 314 0.0 0.0 0.00 0.79 0.79 93 1011.7
20260904022026 18 314 0.0 0.0 0.00 0.79 0.79 93 1011.7
20260904021836 18 314 0.0 0.0 0.00 0.79 0.79 92 1011.7
20260904021732 18 314 0.0 0.0 0.00 0.79 0.79 92 1011.7
20260904021653 18 314 0.0 0.0 0.00 0.79 0.79 92 1011.7
20260904021558 18 314 0.0 0.0 0.00 0.79 0.79 92 1011.7
20260904021523 18 314 0.0 0.0 0.00 0.79 0.79 92 1011.7
20260904021355 18 314 0.0 0.0 0.00 0.79 0.79 92 1011.8
20260904021229 18 314 0.0 0.0 0.00 0.79 0.79 91 1011.8
20260904021200 18 314 0.0 0.0 0.00 0.79 0.79 91 1011.8
20260904021106 18 314 0.0 0.0 0.00 0.79 0.79 92 1011.7
20260904021028 18 314 0.0 0.0 0.00 0.79 0.79 91 1011.7
20260904020841 18 314 0.0 0.0 0.00 0.79 0.79 91 1011.7
20260904020733 18 314 0.0 0.0 0.00 0.79 0.79 92 1011.7
20260904020656 18 314 0.0 0.0 0.00 0.79 0.79 92 1011.7
20260904020524 18 314 0.0 0.0 0.00 0.79 0.79 92 1011.7
20260904020439 18 314 0.0 0.0 0.00 0.79 0.79 91 1011.8
20260904020308 18 314 0.0 0.0 0.00 0.79 0.79 91 1011.8
20260904020230 18 314 0.0 0.0 0.00 0.79 0.79 92 1011.8
20260904015943 18 314 0.0 0.0 0.00 0.79 0.79 92 1011.8
20260904015905 18 314 0.0 0.0 0.00 0.79 0.79 92 1011.8
20260904015807 18 314 0.0 0.0 0.00 0.79 0.79 92 1011.8
20260904015729 18 314 0.0 0.0 0.00 0.79 0.79 92 1011.8
20260904015600 18 314 0.0 0.0 0.00 0.79 0.79 92 1011.8
20260904015516 18 314 0.0 0.0 0.00 0.79 0.79 92 1011.8
20260904015346 18 314 0.0 0.0 0.00 0.79 0.79 91 1011.8
20260904015311 18 314 0.0 0.0 0.00 0.79 0.79 91 1011.9
20260904015232 18 314 0.0 0.0 0.00 0.79 0.79 91 1011.9
20260904015115 18 314 0.0 0.0 0.00 0.79 0.79 91 1011.9
20260904015037 18 314 0.0 0.0 0.00 0.79 0.79 92 1011.9
20260904014906 19 314 0.0 0.0 0.00 0.79 0.79 92 1011.9
20260904014741 19 314 0.0 0.0 0.00 0.79 0.79 91 1011.9
20260904014627 19 314 0.0 0.0 0.00 0.79 0.79 91 1011.9
20260904014547 19 314 0.0 0.0 0.00 0.79 0.79 91 1012.0
20260904014510 19 314 0.0 0.0 0.00 0.79 0.79 91 1011.9
20260904014414 19 314 0.0 0.0 0.00 0.79 0.79 91 1012.0
20260904014335 19 314 0.0 0.0 0.00 0.79 0.79 91 1012.0
20260904014209 19 314 0.0 0.0 0.00 0.79 0.79 91 1012.1
20260904014124 19 314 0.0 0.0 0.00 0.79 0.79 92 1012.1
20260904013934 19 314 0.0 0.0 0.00 0.79 0.79 91 1012.2
20260904013850 19 314 0.0 0.0 0.00 0.79 0.79 91 1012.1
20260904013719 19 314 0.0 0.0 0.00 0.79 0.79 91 1012.0
20260904013640 19 314 0.0 0.0 0.00 0.79 0.79 91 1012.0
20260904013513 19 314 0.0 0.0 0.00 0.79 0.79 91 1012.0
20260904013428 19 314 0.0 0.0 0.00 0.79 0.79 92 1012.0
20260904013240 19 314 0.0 0.0 0.00 0.79 0.79 91 1012.0
20260904013135 19 314 0.0 0.0 0.00 0.79 0.79 92 1011.9
20260904013023 19 314 0.0 0.0 0.00 0.79 0.79 91 1011.9
20260904012943 19 314 0.0 0.0 0.00 0.79 0.79 92 1011.9
20260904012906 19 314 0.0 0.0 0.00 0.79 0.79 92 1011.9
20260904012810 19 314 0.0 0.0 0.00 0.79 0.79 92 1012.0
20260904012731 19 314 0.0 0.0 0.00 0.79 0.79 92 1012.0
20260904012602 19 314 0.0 0.0 0.00 0.79 0.79 92 1011.9
20260904012518 19 314 0.0 0.0 0.00 0.79 0.79 92 1011.9
20260904012347 19 314 0.0 0.0 0.00 0.79 0.79 92 1011.9
20260904012257 19 314 0.0 0.0 0.00 0.79 0.79 92 1011.9
20260904012139 19 314 0.0 0.0 0.00 0.79 0.79 92 1011.8
20260904012026 19 314 0.0 0.0 0.00 0.79 0.79 92 1011.8
20260904011942 19 314 0.0 0.0 0.00 0.79 0.79 92 1011.8
20260904011903 19 314 0.0 0.0 0.00 0.79 0.79 92 1011.8
20260904011825 19 314 0.0 0.0 0.00 0.79 0.79 92 1011.8
20260904011628 19 314 0.0 0.0 0.00 0.79 0.79 92 1011.8
20260904011550 19 314 0.0 0.0 0.00 0.79 0.79 92 1011.8
20260904011455 19 314 0.0 0.0 0.00 0.79 0.79 92 1011.8
20260904011416 19 314 0.0 0.0 0.00 0.79 0.79 92 1011.8
20260904011246 19 314 0.0 0.0 0.00 0.79 0.79 92 1011.7
20260904011201 19 314 0.0 0.0 0.00 0.79 0.79 92 1011.8
20260904011031 19 314 0.0 0.0 0.00 0.79 0.79 92 1011.7
20260904010931 19 314 0.0 0.0 0.00 0.79 0.79 92 1011.6
20260904010836 19 314 0.0 0.0 0.00 0.79 0.79 92 1011.6
20260904010728 19 314 0.0 0.0 0.00 0.79 0.79 92 1011.6
20260904010540 19 314 0.0 0.0 0.00 0.79 0.79 92 1011.7
20260904010455 19 314 0.0 0.0 0.00 0.79 0.79 92 1011.7
20260904010304 19 314 0.0 0.0 0.00 0.79 0.79 92 1011.7
20260904010226 19 314 0.0 0.0 0.00 0.79 0.79 92 1011.7
20260904010029 19 314 0.0 0.0 0.00 0.79 0.79 92 1011.7
20260904005950 19 314 0.0 0.0 0.00 0.79 0.79 92 1011.7
20260904005853 19 314 0.0 0.0 0.00 0.79 0.79 92 1011.6
20260904005733 19 314 0.0 0.0 0.00 0.79 0.79 92 1011.6
20260904005623 19 314 0.0 0.0 0.00 0.79 0.79 92 1011.7
20260904005546 19 314 0.0 0.0 0.00 0.79 0.79 92 1011.7
20260904005409 19 314 0.0 0.0 0.00 0.79 0.79 92 1011.6
20260904005331 19 314 0.0 0.0 0.00 0.79 0.79 92 1011.6
20260904005210 19 314 0.0 0.0 0.00 0.79 0.79 92 1011.5
20260904005126 19 314 0.0 0.0 0.00 0.79 0.79 92 1011.5
20260904004956 19 314 0.0 0.0 0.00 0.79 0.79 92 1011.5
20260904004917 19 314 0.0 0.0 0.00 0.79 0.79 92 1011.4
20260904004747 19 314 0.0 0.0 0.00 0.79 0.79 92 1011.5
20260904004623 19 314 0.0 0.0 0.00 0.79 0.79 91 1011.4
20260904004528 19 314 0.0 0.0 0.00 0.79 0.79 91 1011.4
20260904004450 19 314 0.0 0.0 0.00 0.79 0.79 91 1011.4
20260904004412 19 314 0.0 0.0 0.00 0.79 0.79 92 1011.4
20260904004315 19 314 0.0 0.0 0.00 0.79 0.79 92 1011.4
20260904004237 19 314 0.0 0.0 0.00 0.79 0.79 92 1011.4
20260904004108 20 314 0.0 0.0 0.00 0.79 0.79 92 1011.4
20260904004024 19 314 0.0 0.0 0.00 0.79 0.79 91 1011.4
20260904003853 20 314 0.0 0.0 0.00 0.79 0.79 91 1011.4
20260904003815 20 314 0.0 0.0 0.00 0.79 0.79 91 1011.4
20260904003648 20 314 0.0 0.0 0.00 0.79 0.79 91 1011.3
20260904003524 20 314 0.0 0.0 0.00 0.79 0.79 91 1011.4
20260904003431 20 314 0.0 0.0 0.00 0.79 0.79 91 1011.3
20260904003352 20 314 0.0 0.0 0.00 0.79 0.79 91 1011.3
20260904003221 20 314 0.0 0.0 0.00 0.79 0.79 91 1011.2
20260904003136 20 314 0.0 0.0 0.00 0.79 0.79 91 1011.2
20260904003005 20 314 0.0 0.0 0.00 0.79 0.79 91 1011.3
20260904002928 20 314 0.0 0.0 0.00 0.79 0.79 91 1011.3
20260904002729 20 314 0.0 0.0 0.00 0.79 0.79 91 1011.4
20260904002652 20 314 0.0 0.0 0.00 0.79 0.79 91 1011.3
20260904002537 20 314 0.0 0.0 0.00 0.79 0.79 91 1011.3
20260904002437 20 314 0.0 0.0 0.00 0.79 0.79 91 1011.3
20260904002302 20 314 0.0 0.0 0.00 0.79 0.79 91 1011.2
20260904002227 20 314 0.0 0.0 0.00 0.79 0.79 91 1011.2
20260904002031 20 314 0.0 0.0 0.00 0.79 0.79 91 1011.0
20260904001943 20 314 0.0 0.0 0.00 0.79 0.79 91 1011.0
20260904001826 20 314 0.0 0.0 0.00 0.79 0.79 91 1011.0
20260904001735 20 314 0.0 0.0 0.00 0.79 0.79 91 1011.0
20260904001618 20 314 0.0 0.0 0.00 0.79 0.79 91 1011.0
20260904001540 20 314 0.0 0.0 0.00 0.79 0.79 91 1011.0
20260904001409 20 314 0.0 0.0 0.00 0.79 0.79 91 1011.0
20260904001324 20 314 0.0 0.0 0.00 0.79 0.79 91 1011.0
20260904001140 20 314 0.0 0.0 0.00 0.79 0.79 91 1010.9
20260904001035 20 314 0.0 0.0 0.00 0.79 0.79 90 1010.9
20260904000937 20 314 0.0 0.0 0.00 0.79 0.79 90 1010.9
20260904000901 20 314 0.0 0.0 0.00 0.79 0.79 90 1010.9
20260904000801 20 314 0.0 0.0 0.00 0.79 0.79 90 1010.8
20260904000626 20 314 0.0 0.0 0.00 0.79 0.79 90 1010.8
20260904000546 20 314 0.0 0.0 0.00 0.79 0.79 90 1010.8
20260904000418 20 314 0.0 0.0 0.00 0.79 0.79 90 1010.7
20260904000334 20 314 0.0 0.0 0.00 0.79 0.79 90 1010.7
20260904000147 20 314 0.0 0.0 0.00 0.79 0.79 90 1010.7
20260904000043 20 314 0.0 0.0 0.00 0.79 0.79 90 1010.7
20260903235852 20 314 0.0 0.0 0.00 0.79 0.79 90 1010.6
20260903235752 20 314 0.0 0.0 0.00 0.79 0.79 90 1010.6
20260903235714 20 314 0.0 0.0 0.00 0.79 0.79 90 1010.6
20260903235556 20 314 0.0 0.0 0.00 0.79 0.79 90 1010.6
20260903235519 20 314 0.0 0.0 0.00 0.79 0.79 89 1010.6
20260903235324 20 314 0.0 0.0 0.00 0.79 0.79 89 1010.6
20260903235224 20 314 0.0 0.0 0.00 0.79 0.79 89 1010.6
20260903235130 20 314 0.0 0.0 0.00 0.79 0.79 89 1010.6
20260903235051 20 314 0.0 0.0 0.00 0.79 0.79 89 1010.6
20260903235017 20 314 0.0 0.0 0.00 0.79 0.79 89 1010.7
20260903234858 20 314 0.0 0.0 0.00 0.79 0.79 89 1010.7
20260903234759 20 314 0.0 0.0 0.00 0.79 0.79 89 1010.7
20260903234628 20 314 0.0 0.0 0.00 0.79 0.79 89 1010.6
20260903234523 20 314 0.0 0.0 0.00 0.79 0.79 89 1010.6
20260903234333 20 314 0.0 0.0 0.00 0.79 0.79 88 1010.5
20260903234247 20 314 0.0 0.0 0.00 0.79 0.79 88 1010.6
20260903234116 20 314 0.0 0.0 0.00 0.79 0.79 88 1010.6
20260903234016 20 314 0.0 0.0 0.00 0.79 0.79 88 1010.6
20260903233847 21 314 0.0 0.0 0.00 0.79 0.79 88 1010.6
20260903233740 21 314 0.0 0.0 0.00 0.79 0.79 88 1010.6
20260903233705 21 314 0.0 0.0 0.00 0.79 0.79 88 1010.6
20260903233609 21 314 0.0 0.0 0.00 0.79 0.79 88 1010.6
20260903233531 21 314 0.0 0.0 0.00 0.79 0.79 87 1010.6
20260903233336 21 314 0.0 0.0 0.00 0.79 0.79 87 1010.6
20260903233237 21 314 0.0 0.0 0.00 0.79 0.79 87 1010.6
20260903233142 21 314 0.0 0.0 0.00 0.79 0.79 87 1010.5
20260903233045 21 314 0.0 0.0 0.00 0.79 0.79 88 1010.6
20260903232926 21 314 0.0 0.0 0.00 0.79 0.79 88 1010.6
20260903232848 21 314 0.0 0.0 0.00 0.79 0.79 87 1010.6
20260903232808 21 314 0.0 0.0 0.00 0.79 0.79 87 1010.6
20260903232716 21 314 0.0 0.0 0.00 0.79 0.79 87 1010.5
20260903232636 21 314 0.0 0.0 0.00 0.79 0.79 87 1010.5
20260903232506 21 314 0.0 0.0 0.00 0.79 0.79 86 1010.4
20260903232421 21 314 0.0 0.0 0.00 0.79 0.79 86 1010.4
20260903232251 21 314 0.0 0.0 0.00 0.79 0.79 86 1010.3
20260903232212 21 314 0.0 0.0 0.00 0.79 0.79 86 1010.3
20260903232041 21 314 0.0 0.0 0.00 0.79 0.79 86 1010.3
20260903231934 21 314 0.0 0.0 0.00 0.79 0.79 86 1010.3
20260903231804 21 314 0.0 0.0 0.00 0.79 0.79 86 1010.2
20260903231726 21 314 0.0 0.0 0.00 0.79 0.79 85 1010.2
20260903231528 22 314 0.0 0.0 0.00 0.79 0.79 86 1010.2
20260903231450 22 314 0.0 1.6 0.00 0.79 0.79 86 1010.3
20260903231340 22 314 0.0 1.6 0.00 0.79 0.79 86 1010.3
20260903231303 22 314 0.0 1.6 0.00 0.79 0.79 86 1010.2
20260903231155 22 314 0.0 1.6 0.00 0.79 0.79 86 1010.3
20260903231117 22 314 0.0 1.6 0.00 0.79 0.79 86 1010.3
20260903231039 22 217 0.0 1.6 0.00 0.79 0.79 85 1010.3
20260903230842 22 217 0.0 1.6 0.00 0.79 0.79 84 1010.3
20260903230804 22 217 0.0 1.6 0.00 0.79 0.79 84 1010.3
20260903230707 22 217 0.0 1.6 0.00 0.79 0.79 85 1010.2
20260903230628 22 217 0.0 1.6 0.00 0.79 0.79 84 1010.2
20260903230440 22 217 0.0 3.2 0.00 0.79 0.79 84 1010.3
20260903230338 22 217 0.0 3.2 0.00 0.79 0.79 85 1010.3
20260903230223 22 217 0.0 3.2 0.00 0.79 0.79 85 1010.4
20260903230145 22 217 0.0 3.2 0.00 0.79 0.79 85 1010.4
20260903230014 22 217 0.0 3.2 0.00 0.79 0.79 84 1010.4
20260903225929 22 217 0.0 3.2 0.00 0.79 0.79 83 1010.4
20260903225759 23 217 1.6 3.2 0.00 0.79 0.79 83 1010.3
20260903225723 23 217 1.6 3.2 0.00 0.79 0.79 83 1010.3
20260903225637 23 217 0.0 8.0 0.00 0.79 0.79 83 1010.2
20260903225426 23 217 0.0 8.0 0.00 0.79 0.79 85 1010.3
20260903225318 23 217 0.0 8.0 0.00 0.79 0.79 85 1010.3
20260903225152 23 217 1.6 8.0 0.00 0.79 0.79 84 1010.3
20260903225115 23 188 1.6 8.0 0.00 0.79 0.79 83 1010.2
20260903224945 23 156 1.6 8.0 0.00 0.79 0.79 83 1010.1
20260903224839 23 156 3.2 8.0 0.00 0.79 0.79 83 1010.0
20260903224724 23 156 3.2 8.0 0.00 0.79 0.79 83 1010.0
20260903224646 23 189 3.2 4.8 0.00 0.79 0.79 83 1010.0
20260903224516 23 245 1.6 3.2 0.00 0.79 0.79 83 1010.2
20260903224431 23 281 1.6 1.6 0.00 0.79 0.79 82 1010.2
20260903224240 24 281 0.0 1.6 0.00 0.79 0.79 82 1010.3
20260903224140 24 281 1.6 1.6 0.00 0.79 0.79 82 1010.3
20260903224025 24 281 0.0 1.6 0.00 0.79 0.79 82 1010.4
20260903223946 24 281 0.0 1.6 0.00 0.79 0.79 82 1010.4
20260903223816 24 281 0.0 3.2 0.00 0.79 0.79 82 1010.3
20260903223730 24 281 0.0 3.2 0.00 0.79 0.79 82 1010.3
20260903223631 24 281 0.0 3.2 0.00 0.79 0.79 82 1010.3
20260903223501 25 281 0.0 3.2 0.00 0.79 0.79 80 1010.4
20260903223417 25 281 0.0 3.2 0.00 0.79 0.79 81 1010.4
20260903223235 25 281 1.6 4.8 0.00 0.79 0.79 78 1010.4
20260903223141 25 281 1.6 4.8 0.00 0.79 0.79 79 1010.4
20260903222824 25 177 0.0 4.8 0.00 0.79 0.79 78 1010.2
20260903222725 25 177 1.6 4.8 0.00 0.79 0.79 78 1010.1
20260903222629 25 177 1.6 4.8 0.00 0.79 0.79 78 1010.1
20260903222551 25 177 1.6 4.8 0.00 0.79 0.79 78 1010.2
20260903222420 25 251 1.6 4.8 0.00 0.79 0.79 79 1010.2
20260903222334 25 251 3.2 4.8 0.00 0.79 0.79 79 1010.2
20260903222144 25 249 3.2 4.8 0.00 0.79 0.79 76 1010.3
20260903222024 25 151 3.2 4.8 0.00 0.79 0.79 79 1010.3
20260903221929 25 139 3.2 4.8 0.00 0.79 0.79 79 1010.3
20260903221849 25 107 1.6 4.8 0.00 0.79 0.79 79 1010.3
20260903221719 25 61 1.6 3.2 0.00 0.79 0.79 79 1010.4
20260903221634 25 22 0.0 3.2 0.00 0.79 0.79 79 1010.4
20260903221504 25 319 0.0 3.2 0.00 0.79 0.79 77 1010.4
20260903221425 25 319 1.6 3.2 0.00 0.79 0.79 77 1010.4
20260903221227 25 319 0.0 4.8 0.00 0.79 0.79 77 1010.3
20260903221148 25 319 0.0 4.8 0.00 0.79 0.79 76 1010.3
20260903221033 25 319 0.0 4.8 0.00 0.79 0.79 76 1010.3
20260903220958 25 319 0.0 4.8 0.00 0.79 0.79 77 1010.3
20260903220921 26 319 0.0 4.8 0.00 0.79 0.79 77 1010.3
20260903220803 26 319 0.0 4.8 0.00 0.79 0.79 77 1010.4
20260903220725 26 319 1.6 4.8 0.00 0.79 0.79 77 1010.4
20260903220529 26 319 3.2 4.8 0.00 0.79 0.79 77 1010.4
20260903220430 26 319 3.2 4.8 0.00 0.79 0.79 77 1010.5
20260903220333 26 308 3.2 4.8 0.00 0.79 0.79 77 1010.4
20260903220233 26 309 3.2 4.8 0.00 0.79 0.79 77 1010.4
20260903220019 26 288 0.0 0.0 0.00 0.79 0.79 75 1010.3
20260903215832 26 288 0.0 0.0 0.00 0.79 0.79 76 1010.2
20260903215745 26 288 0.0 0.0 0.00 0.79 0.79 76 1010.3
20260903215615 26 288 0.0 0.0 0.00 0.79 0.79 76 1010.2
20260903215537 26 287 0.0 3.2 0.00 0.79 0.79 76 1010.2
20260903215340 26 243 0.0 3.2 0.00 0.79 0.79 75 1010.3
20260903215242 26 243 0.0 3.2 0.00 0.79 0.79 74 1010.3
20260903215126 26 243 0.0 6.4 0.00 0.79 0.79 74 1010.4
20260903215049 26 243 0.0 6.4 0.00 0.79 0.79 74 1010.4
20260903215013 26 243 0.0 6.4 0.00 0.79 0.79 74 1010.4
20260903214854 26 243 0.0 6.4 0.00 0.79 0.79 73 1010.4
20260903214815 26 243 1.6 6.4 0.00 0.79 0.79 71 1010.5
20260903214627 26 244 0.0 6.4 0.00 0.79 0.79 74 1010.5
20260903214521 26 252 1.6 6.4 0.00 0.79 0.79 74 1010.5
20260903214331 26 252 1.6 6.4 0.00 0.79 0.79 74 1010.5
20260903214246 26 198 1.6 6.4 0.00 0.79 0.79 74 1010.5
20260903214055 26 223 3.2 6.4 0.00 0.79 0.79 72 1010.4
20260903214016 26 221 3.2 6.4 0.00 0.79 0.79 73 1010.3
20260903213842 26 236 1.6 6.4 0.00 0.79 0.79 74 1010.3
20260903213742 26 214 1.6 4.8 0.00 0.79 0.79 73 1010.2
20260903213626 26 214 1.6 6.4 0.00 0.79 0.79 73 1010.2
20260903213547 26 214 1.6 6.4 0.00 0.79 0.79 72 1010.1
20260903213454 26 227 1.6 6.4 0.00 0.79 0.79 72 1010.1
20260903213336 26 229 1.6 6.4 0.00 0.79 0.79 71 1010.0
20260903213258 26 215 1.6 8.0 0.00 0.79 0.79 72 1010.1
20260903213141 26 204 3.2 14.5 0.00 0.79 0.79 71 1010.1
20260903213102 26 204 3.2 14.5 0.00 0.79 0.79 71 1010.1
20260903213025 26 187 3.2 14.5 0.00 0.79 0.79 71 1010.1
20260903212907 26 215 4.8 14.5 0.00 0.79 0.79 71 1010.1
20260903212829 26 193 4.8 14.5 0.00 0.79 0.79 70 1010.1
20260903212658 26 189 3.2 14.5 0.00 0.79 0.79 70 1010.2
20260903212614 26 219 3.2 14.5 0.00 0.79 0.79 70 1010.3
20260903212445 27 231 6.4 16.1 0.00 0.79 0.79 70 1010.3
20260903212344 27 178 6.4 16.1 0.00 0.79 0.79 70 1010.4
20260903212259 27 148 3.2 16.1 0.00 0.79 0.79 70 1010.4
20260903212142 27 219 4.8 16.1 0.00 0.79 0.79 71 1010.4
20260903212104 27 198 4.8 16.1 0.00 0.79 0.79 69 1010.4
20260903211913 27 186 4.8 16.1 0.00 0.79 0.79 71 1010.3
20260903211829 27 162 6.4 16.1 0.00 0.79 0.79 69 1010.3
20260903211700 27 200 9.7 16.1 0.00 0.79 0.79 68 1010.3
20260903211622 27 227 8.0 16.1 0.00 0.79 0.79 69 1010.3
20260903211442 27 223 8.0 14.5 0.00 0.79 0.79 69 1010.3
20260903211403 27 212 8.0 14.5 0.00 0.79 0.79 69 1010.2
20260903211207 27 194 6.4 14.5 0.00 0.79 0.79 70 1010.2
20260903211140 27 194 6.4 14.5 0.00 0.79 0.79 70 1010.2
20260903211009 27 192 6.4 14.5 0.00 0.79 0.79 69 1010.2
20260903210912 27 161 6.4 14.5 0.00 0.79 0.79 69 1010.2
20260903210755 27 178 6.4 14.5 0.00 0.79 0.79 68 1010.2
20260903210716 27 173 4.8 14.5 0.00 0.79 0.79 68 1010.3
20260903210546 27 168 6.4 14.5 0.00 0.79 0.79 69 1010.2
20260903210441 27 123 8.0 14.5 0.00 0.79 0.79 67 1010.2
20260903210403 27 157 8.0 14.5 0.00 0.79 0.79 67 1010.3
20260903210317 27 200 9.7 14.5 0.00 0.79 0.79 66 1010.2
20260903210218 27 147 9.7 14.5 0.00 0.79 0.79 66 1010.2